KC5DAQ-22 Weather Reports


Display with metric or nautical units.
time (UTC)temp
F
wind
direction
speed
MPH
gust
MPH
rain 1hr
in
rain 24hr
in
rain mn
in
humidity
%
barometer
mb
20260906183359 84 178 4.0 10.0 0.08 0.34 0.34 83 1011.6
20260906183259 84 185 4.0 10.0 0.10 0.34 0.34 83 1011.6
20260906183159 84 141 3.0 10.0 0.12 0.34 0.34 84 1011.6
20260906183100 84 188 4.0 10.0 0.15 0.34 0.34 84 1011.6
20260906182958 84 116 3.0 10.0 0.17 0.34 0.34 84 1011.6
20260906182859 84 199 4.0 10.0 0.18 0.34 0.34 85 1011.7
20260906182800 83 196 4.0 10.0 0.20 0.34 0.34 84 1011.6
20260906182659 83 200 5.0 10.0 0.21 0.34 0.34 84 1011.6
20260906182559 83 162 4.0 10.0 0.23 0.34 0.34 84 1011.7
20260906182458 83 179 3.0 6.0 0.24 0.34 0.34 86 1011.7
20260906182359 83 214 2.0 6.0 0.24 0.34 0.34 87 1011.6
20260906182259 83 200 2.0 6.0 0.24 0.34 0.34 87 1011.7
20260906182158 83 140 3.0 6.0 0.24 0.34 0.34 87 1011.7
20260906182100 83 188 3.0 6.0 0.24 0.34 0.34 88 1011.6
20260906181957 83 151 3.0 6.0 0.24 0.34 0.34 88 1011.7
20260906181857 83 100 3.0 6.0 0.24 0.34 0.34 88 1011.7
20260906181757 83 172 4.0 6.0 0.25 0.34 0.34 88 1011.8
20260906181658 83 190 4.0 6.0 0.25 0.34 0.34 88 1011.9
20260906181557 83 178 3.0 6.0 0.25 0.34 0.34 89 1011.9
20260906181457 83 197 4.0 6.0 0.26 0.34 0.34 89 1011.8
20260906181400 83 190 4.0 7.0 0.26 0.34 0.34 89 1011.8
20260906181259 83 192 3.0 7.0 0.26 0.34 0.34 90 1011.8
20260906181157 83 69 3.0 9.0 0.27 0.34 0.34 90 1011.9
20260906181057 83 0 4.0 9.0 0.27 0.34 0.34 89 1011.9
20260906180957 83 0 3.0 9.0 0.27 0.34 0.34 89 1011.9
20260906180859 83 0 1.0 9.0 0.28 0.34 0.34 90 1011.9
20260906180758 83 0 1.0 9.0 0.28 0.34 0.34 91 1011.8
20260906180700 82 0 2.0 9.0 0.29 0.34 0.34 90 1011.9
20260906180557 82 79 4.0 9.0 0.29 0.34 0.34 90 1012.0
20260906180458 82 65 5.0 9.0 0.30 0.34 0.34 90 1012.0
20260906180358 82 0 5.0 9.0 0.31 0.34 0.34 90 1012.0
20260906180257 82 0 5.0 9.0 0.32 0.34 0.34 89 1011.9
20260906180158 82 0 4.0 7.0 0.33 0.34 0.34 90 1012.0
20260906180058 82 0 5.0 7.0 0.34 0.34 0.34 89 1012.0
20260906175959 82 68 5.0 7.0 0.34 0.00 0.34 89 1011.9
20260906175858 82 0 4.0 7.0 0.34 0.00 0.34 90 1011.9
20260906175758 82 0 4.0 7.0 0.34 0.00 0.34 90 1011.9
20260906175658 82 0 4.0 7.0 0.34 0.00 0.34 89 1011.9
20260906175557 82 0 4.0 7.0 0.34 0.00 0.34 90 1011.9
20260906175457 82 0 4.0 6.0 0.34 0.00 0.34 90 1011.9
20260906175357 82 0 4.0 6.0 0.34 0.00 0.33 91 1011.9
20260906175258 82 27 4.0 6.0 0.33 0.00 0.33 89 1012.0
20260906175158 82 27 4.0 6.0 0.33 0.00 0.33 89 1011.9
20260906175059 82 27 4.0 6.0 0.33 0.00 0.33 89 1011.9
20260906174958 82 27 4.0 6.0 0.33 0.00 0.33 89 1011.9
20260906174858 82 21 5.0 6.0 0.33 0.00 0.33 90 1011.9
20260906174757 82 17 5.0 6.0 0.33 0.00 0.33 90 1011.8
20260906174657 82 18 5.0 6.0 0.33 0.00 0.33 90 1011.9
20260906174559 82 13 4.0 5.0 0.33 0.00 0.33 90 1011.8
20260906174457 82 13 3.0 5.0 0.33 0.00 0.32 90 1011.8
20260906174357 82 20 4.0 5.0 0.32 0.00 0.32 90 1011.9
20260906174258 82 24 4.0 5.0 0.32 0.00 0.32 90 1011.9
20260906174157 82 25 4.0 5.0 0.32 0.00 0.32 90 1011.9
20260906174058 82 24 4.0 7.0 0.32 0.00 0.31 90 1011.8
20260906173957 81 20 4.0 9.0 0.31 0.00 0.31 90 1011.8
20260906173858 81 20 4.0 12.0 0.31 0.00 0.31 90 1011.8
20260906173757 81 14 3.0 15.0 0.31 0.00 0.30 89 1011.9
20260906173657 80 13 3.0 15.0 0.30 0.00 0.29 89 1011.9
20260906173557 80 8 3.0 15.0 0.29 0.00 0.27 88 1012.0
20260906173456 80 8 4.0 15.0 0.27 0.00 0.26 88 1012.1
20260906173358 80 6 4.0 15.0 0.26 0.00 0.24 88 1012.1
20260906173256 80 3 4.0 15.0 0.24 0.00 0.22 87 1012.1
20260906173158 81 3 6.0 15.0 0.22 0.00 0.19 87 1012.1
20260906173057 81 1 7.0 15.0 0.19 0.00 0.17 87 1012.1
20260906172957 82 0 9.0 15.0 0.17 0.00 0.16 87 1012.1
20260906172857 82 0 9.0 15.0 0.16 0.00 0.14 88 1012.1
20260906172756 83 0 7.0 10.0 0.14 0.00 0.13 89 1012.0
20260906172657 83 0 7.0 10.0 0.12 0.00 0.11 88 1012.1
20260906172557 83 0 6.0 9.0 0.11 0.00 0.10 88 1012.1
20260906172458 83 8 5.0 6.0 0.10 0.00 0.10 88 1012.1
20260906172356 83 10 4.0 5.0 0.10 0.00 0.10 87 1012.2
20260906172256 83 7 2.0 6.0 0.10 0.00 0.10 88 1012.3
20260906172157 83 1 1.0 6.0 0.10 0.00 0.10 86 1012.2
20260906172057 83 1 3.0 6.0 0.10 0.00 0.10 86 1012.3
20260906171956 83 0 3.0 6.0 0.10 0.00 0.10 86 1012.3
20260906171856 83 0 1.0 6.0 0.10 0.00 0.09 86 1012.3
20260906171756 83 238 0.0 6.0 0.09 0.00 0.09 87 1012.3
20260906171657 83 241 0.0 6.0 0.09 0.00 0.09 86 1012.3
20260906171556 83 258 2.0 6.0 0.09 0.00 0.08 87 1012.3
20260906171457 83 259 4.0 6.0 0.08 0.00 0.08 86 1012.3
20260906171357 84 262 4.0 6.0 0.08 0.00 0.08 85 1012.3
20260906171254 84 231 1.0 5.0 0.08 0.00 0.07 86 1012.3
20260906171154 84 207 1.0 6.0 0.07 0.00 0.07 86 1012.3
20260906171052 84 138 2.0 6.0 0.07 0.00 0.07 86 1012.4
20260906170949 84 152 2.0 6.0 0.06 0.00 0.06 85 1012.4
20260906170848 85 151 2.0 6.0 0.06 0.00 0.06 84 1012.4
20260906170747 85 274 2.0 6.0 0.06 0.00 0.05 85 1012.3
20260906170645 85 176 2.0 6.0 0.05 0.00 0.05 84 1012.3
20260906170542 85 164 2.0 6.0 0.04 0.00 0.04 83 1012.3
20260906170441 86 244 4.0 6.0 0.04 0.00 0.03 83 1012.3
20260906170341 86 298 4.0 6.0 0.03 0.00 0.02 80 1012.3
20260906170236 87 293 4.0 6.0 0.02 0.00 0.02 79 1012.3
20260906170134 88 321 2.0 5.0 0.01 0.00 0.00 79 1012.3
20260906170034 88 30 2.0 5.0 0.00 0.00 0.00 77 1012.3
20260906165931 88 30 2.0 5.0 0.00 0.00 0.00 77 1012.3
20260906165831 88 30 2.0 5.0 0.00 0.00 0.00 76 1012.2
20260906165732 88 30 3.0 5.0 0.00 0.00 0.00 76 1012.2
20260906165632 88 30 3.0 5.0 0.00 0.00 0.00 76 1012.2
20260906165531 88 31 3.0 5.0 0.00 0.00 0.00 76 1012.2
20260906165433 88 31 4.0 5.0 0.00 0.00 0.00 75 1012.2
20260906165331 88 32 3.0 5.0 0.00 0.00 0.00 75 1012.2
20260906165232 88 32 3.0 5.0 0.00 0.00 0.00 75 1012.1
20260906165132 88 49 2.0 5.0 0.00 0.00 0.00 75 1012.0
20260906165031 88 49 0.0 5.0 0.00 0.00 0.00 75 1012.1
20260906164931 88 49 1.0 5.0 0.00 0.00 0.00 75 1012.0
20260906164831 88 49 2.0 5.0 0.00 0.00 0.00 74 1012.1
20260906164733 88 49 3.0 5.0 0.00 0.00 0.00 74 1012.0
20260906164631 88 49 4.0 5.0 0.00 0.00 0.00 74 1012.0
20260906164531 88 45 2.0 5.0 0.00 0.00 0.00 74 1012.1
20260906164432 88 42 3.0 5.0 0.00 0.00 0.00 73 1012.1
20260906164330 89 42 3.0 5.0 0.00 0.00 0.00 74 1012.0
20260906164231 89 0 2.0 4.0 0.00 0.00 0.00 74 1012.1
20260906164131 89 0 2.0 4.0 0.00 0.00 0.00 74 1012.1
20260906164032 89 0 2.0 4.0 0.00 0.00 0.00 74 1012.1
20260906163932 89 0 2.0 4.0 0.00 0.00 0.00 74 1012.2
20260906163831 89 0 3.0 4.0 0.00 0.00 0.00 73 1012.2
20260906163731 89 0 2.0 4.0 0.00 0.00 0.00 74 1012.2
20260906163632 89 0 1.0 4.0 0.00 0.00 0.00 74 1012.2
20260906163530 89 0 1.0 4.0 0.00 0.00 0.00 74 1012.2
20260906163427 89 0 2.0 4.0 0.00 0.00 0.00 74 1012.1
20260906163325 89 0 2.0 4.0 0.00 0.00 0.00 74 1012.1
20260906163224 89 0 3.0 4.0 0.00 0.00 0.00 74 1012.1
20260906163123 89 0 2.0 4.0 0.00 0.00 0.00 74 1012.1
20260906163023 89 0 2.0 4.0 0.00 0.00 0.00 75 1012.1
20260906162920 89 0 2.0 4.0 0.00 0.00 0.00 74 1012.2
20260906162819 89 0 2.0 4.0 0.00 0.00 0.00 74 1012.1
20260906162717 89 0 2.0 4.0 0.00 0.00 0.00 75 1012.2
20260906162617 89 0 2.0 4.0 0.00 0.00 0.00 75 1012.2
20260906162515 89 0 3.0 4.0 0.00 0.00 0.00 75 1012.2
20260906162409 89 0 2.0 4.0 0.00 0.00 0.00 75 1012.1
20260906162308 89 1 2.0 4.0 0.00 0.00 0.00 75 1012.1
20260906162207 89 1 3.0 4.0 0.00 0.00 0.00 76 1012.1
20260906162106 88 3 2.0 4.0 0.00 0.00 0.00 76 1012.1
20260906162003 88 45 0.0 4.0 0.00 0.00 0.00 77 1012.1
20260906161902 88 47 1.0 4.0 0.00 0.00 0.00 77 1012.1
20260906161803 88 47 2.0 4.0 0.00 0.00 0.00 77 1012.2
20260906161703 87 47 2.0 4.0 0.00 0.00 0.00 77 1012.1
20260906161602 87 47 2.0 5.0 0.00 0.00 0.00 77 1012.2
20260906161503 88 47 3.0 7.0 0.00 0.00 0.00 76 1012.2
20260906161404 88 47 2.0 7.0 0.00 0.00 0.00 76 1012.2
20260906161303 88 32 3.0 7.0 0.00 0.00 0.00 76 1012.2
20260906161203 88 32 3.0 7.0 0.00 0.00 0.00 76 1012.2
20260906161103 88 32 3.0 7.0 0.00 0.00 0.00 76 1012.2
20260906161003 88 28 2.0 7.0 0.00 0.00 0.00 76 1012.2
20260906160902 89 27 3.0 7.0 0.00 0.00 0.00 75 1012.2
20260906160804 89 27 4.0 7.0 0.00 0.00 0.00 74 1012.2
20260906160657 89 27 4.0 7.0 0.00 0.00 0.00 74 1012.2
20260906160555 90 30 3.0 7.0 0.00 0.00 0.00 74 1012.1
20260906160455 90 8 2.0 5.0 0.00 0.00 0.00 73 1012.2
20260906160356 90 54 3.0 5.0 0.00 0.00 0.00 72 1012.2
20260906160255 90 56 4.0 5.0 0.00 0.00 0.00 72 1012.2
20260906160155 91 54 3.0 5.0 0.00 0.00 0.00 72 1012.2
20260906160054 91 24 4.0 5.0 0.00 0.00 0.00 73 1012.2
20260906155955 91 24 4.0 5.0 0.00 0.00 0.00 73 1012.1
20260906155855 91 23 3.0 5.0 0.00 0.00 0.00 75 1012.1
20260906155754 90 23 2.0 5.0 0.00 0.00 0.00 75 1012.1
20260906155654 90 23 2.0 5.0 0.00 0.00 0.00 75 1012.1
20260906155554 90 23 3.0 5.0 0.00 0.00 0.00 75 1012.0
20260906155455 90 21 3.0 5.0 0.00 0.00 0.00 75 1012.1
20260906155354 90 21 3.0 5.0 0.00 0.00 0.00 76 1012.1
20260906155255 89 21 4.0 5.0 0.00 0.00 0.00 77 1012.1
20260906155156 89 23 2.0 5.0 0.00 0.00 0.00 78 1012.2
20260906155054 89 351 1.0 4.0 0.00 0.00 0.00 78 1012.1
20260906154954 88 288 1.0 4.0 0.00 0.00 0.00 79 1012.1
20260906154854 87 286 1.0 4.0 0.00 0.00 0.00 79 1012.2
20260906154755 87 286 2.0 4.0 0.00 0.00 0.00 79 1012.2
20260906154654 87 286 2.0 4.0 0.00 0.00 0.00 79 1012.3
20260906154554 87 286 2.0 4.0 0.00 0.00 0.00 79 1012.3
20260906154455 87 288 2.0 4.0 0.00 0.00 0.00 80 1012.3
20260906154355 87 289 2.0 4.0 0.00 0.00 0.00 79 1012.3
20260906154254 87 289 1.0 4.0 0.00 0.00 0.00 79 1012.2
20260906154154 87 289 1.0 4.0 0.00 0.00 0.00 79 1012.3
20260906154056 87 289 1.0 4.0 0.00 0.00 0.00 79 1012.3
20260906153955 87 289 3.0 4.0 0.00 0.00 0.00 79 1012.3
20260906153854 87 289 2.0 4.0 0.00 0.00 0.00 79 1012.3
20260906153755 87 305 2.0 4.0 0.00 0.00 0.00 79 1012.3
20260906153654 87 305 2.0 4.0 0.00 0.00 0.00 79 1012.3
20260906153555 87 305 2.0 4.0 0.00 0.00 0.00 79 1012.3
20260906153455 87 306 2.0 4.0 0.00 0.00 0.00 80 1012.3
20260906153355 87 306 2.0 4.0 0.00 0.00 0.00 80 1012.3
20260906153255 86 306 3.0 4.0 0.00 0.00 0.00 80 1012.3
20260906153154 86 307 2.0 4.0 0.00 0.00 0.00 80 1012.3
20260906153053 86 307 0.0 4.0 0.00 0.00 0.00 81 1012.3
20260906152953 86 347 1.0 4.0 0.00 0.00 0.00 81 1012.3
20260906152853 86 347 2.0 4.0 0.00 0.00 0.00 82 1012.3
20260906152755 86 347 2.0 4.0 0.00 0.00 0.00 81 1012.3
20260906152655 86 347 3.0 4.0 0.00 0.00 0.00 82 1012.3
20260906152555 86 347 3.0 4.0 0.00 0.00 0.00 83 1012.4
20260906152453 86 347 2.0 4.0 0.00 0.00 0.00 83 1012.3
20260906152356 86 333 2.0 4.0 0.00 0.00 0.00 83 1012.4
20260906152254 86 319 2.0 4.0 0.00 0.00 0.00 83 1012.4
20260906152154 86 312 3.0 4.0 0.00 0.00 0.00 83 1012.3
20260906152053 86 324 3.0 4.0 0.00 0.00 0.00 83 1012.3
20260906151953 86 336 3.0 4.0 0.00 0.00 0.00 83 1012.3
20260906151854 86 334 2.0 4.0 0.00 0.00 0.00 83 1012.3
20260906151754 86 7 0.0 3.0 0.00 0.00 0.00 83 1012.3
20260906151655 86 13 0.0 4.0 0.00 0.00 0.00 83 1012.3
20260906151554 86 13 0.0 5.0 0.00 0.00 0.00 82 1012.3
20260906151454 86 13 0.0 5.0 0.00 0.00 0.00 82 1012.3
20260906151354 87 13 0.0 5.0 0.00 0.00 0.00 82 1012.2
20260906151253 87 13 1.0 5.0 0.00 0.00 0.00 82 1012.2
20260906151154 87 14 1.0 5.0 0.00 0.00 0.00 82 1012.3
20260906151053 87 13 1.0 5.0 0.00 0.00 0.00 82 1012.3
20260906150954 87 14 1.0 5.0 0.00 0.00 0.00 81 1012.2
20260906150853 87 14 2.0 5.0 0.00 0.00 0.00 81 1012.3
20260906150755 87 14 4.0 5.0 0.00 0.00 0.00 81 1012.3
20260906150654 88 14 4.0 5.0 0.00 0.00 0.00 80 1012.2
20260906150554 88 14 4.0 5.0 0.00 0.00 0.00 80 1012.1
20260906150455 88 11 4.0 5.0 0.00 0.00 0.00 80 1012.2
20260906150354 88 8 3.0 5.0 0.00 0.00 0.00 81 1012.2
20260906150253 88 345 2.0 4.0 0.00 0.00 0.00 81 1012.2
20260906150155 88 35 3.0 4.0 0.00 0.00 0.00 82 1012.2
20260906150053 87 82 3.0 4.0 0.00 0.00 0.00 82 1012.1
20260906145955 87 85 2.0 4.0 0.00 0.00 0.00 82 1012.2
20260906145855 87 83 3.0 5.0 0.00 0.00 0.00 81 1012.2
20260906145754 87 83 3.0 5.0 0.00 0.00 0.00 81 1012.1
20260906145653 87 92 2.0 5.0 0.00 0.00 0.00 82 1012.2
20260906145556 87 99 2.0 5.0 0.00 0.00 0.00 82 1012.1
20260906145453 87 151 2.0 5.0 0.00 0.00 0.00 82 1012.1
20260906145353 87 164 2.0 5.0 0.00 0.00 0.00 83 1012.1
20260906145255 87 134 1.0 5.0 0.00 0.00 0.00 84 1012.2
20260906145154 87 103 2.0 5.0 0.00 0.00 0.00 83 1012.2
20260906145055 87 103 3.0 5.0 0.00 0.00 0.00 83 1012.2
20260906144953 87 104 3.0 5.0 0.00 0.00 0.00 83 1012.2
20260906144854 86 82 2.0 5.0 0.00 0.00 0.00 83 1012.1
20260906144753 86 56 2.0 5.0 0.00 0.00 0.00 83 1012.2
20260906144654 86 56 3.0 5.0 0.00 0.00 0.00 84 1012.2
20260906144555 86 82 3.0 5.0 0.00 0.00 0.00 84 1012.2
20260906144453 86 76 2.0 5.0 0.00 0.00 0.00 84 1012.1
20260906144354 86 76 2.0 5.0 0.00 0.00 0.00 84 1012.1
20260906144255 86 76 3.0 5.0 0.00 0.00 0.00 84 1012.2
20260906144153 86 85 3.0 5.0 0.00 0.00 0.00 84 1012.2
20260906144052 86 87 3.0 5.0 0.00 0.00 0.00 84 1012.2
20260906143953 86 75 4.0 5.0 0.00 0.00 0.00 84 1012.2
20260906143855 86 73 4.0 5.0 0.00 0.00 0.00 84 1012.3
20260906143754 86 44 3.0 5.0 0.00 0.00 0.00 84 1012.3
20260906143653 86 32 2.0 5.0 0.00 0.00 0.00 85 1012.3
20260906143553 85 32 2.0 5.0 0.00 0.00 0.00 85 1012.3
20260906143454 85 31 3.0 5.0 0.00 0.00 0.00 85 1012.3
20260906143353 85 65 3.0 5.0 0.00 0.00 0.00 85 1012.3
20260906143252 85 65 4.0 5.0 0.00 0.00 0.00 85 1012.3
20260906143153 85 83 4.0 5.0 0.00 0.00 0.00 85 1012.3
20260906143053 85 83 4.0 5.0 0.00 0.00 0.00 85 1012.3
20260906142953 85 79 4.0 5.0 0.00 0.00 0.00 85 1012.2
20260906142852 85 85 5.0 5.0 0.00 0.00 0.00 85 1012.3
20260906142753 85 63 4.0 5.0 0.00 0.00 0.00 85 1012.2
20260906142653 85 89 3.0 5.0 0.00 0.00 0.00 85 1012.2
20260906142552 85 83 3.0 5.0 0.00 0.00 0.00 85 1012.2
20260906142454 85 82 3.0 5.0 0.00 0.00 0.00 85 1012.3
20260906142352 85 73 4.0 5.0 0.00 0.00 0.00 85 1012.3
20260906142252 85 72 4.0 5.0 0.00 0.00 0.00 85 1012.2
20260906142153 85 75 4.0 5.0 0.00 0.00 0.00 85 1012.3
20260906142053 85 71 4.0 5.0 0.00 0.00 0.00 85 1012.2
20260906141952 85 61 4.0 5.0 0.00 0.00 0.00 86 1012.2
20260906141852 85 80 3.0 5.0 0.00 0.00 0.00 86 1012.3
20260906141753 85 63 3.0 5.0 0.00 0.00 0.00 86 1012.3
20260906141653 85 63 3.0 5.0 0.00 0.00 0.00 86 1012.2
20260906141553 85 39 3.0 5.0 0.00 0.00 0.00 86 1012.3
20260906141453 85 39 3.0 5.0 0.00 0.00 0.00 86 1012.3
20260906141353 85 35 3.0 5.0 0.00 0.00 0.00 87 1012.3
20260906141252 85 25 2.0 5.0 0.00 0.00 0.00 87 1012.3
20260906141151 85 38 1.0 5.0 0.00 0.00 0.00 87 1012.3
20260906141051 84 38 1.0 5.0 0.00 0.00 0.00 88 1012.3
20260906140954 84 48 0.0 5.0 0.00 0.00 0.00 88 1012.2
20260906140852 84 48 1.0 5.0 0.00 0.00 0.00 88 1012.2
20260906140754 84 48 3.0 5.0 0.00 0.00 0.00 88 1012.3
20260906140653 84 48 4.0 5.0 0.00 0.00 0.00 88 1012.3
20260906140553 84 42 4.0 5.0 0.00 0.00 0.00 88 1012.2
20260906140452 84 34 4.0 5.0 0.00 0.00 0.00 88 1012.3
20260906140353 84 34 3.0 5.0 0.00 0.00 0.00 88 1012.2
20260906140251 84 30 3.0 4.0 0.00 0.00 0.00 88 1012.2
20260906140151 84 28 3.0 4.0 0.00 0.00 0.00 89 1012.2
20260906140053 83 28 2.0 4.0 0.00 0.00 0.00 89 1012.1
20260906135952 83 28 1.0 3.0 0.00 0.00 0.00 89 1012.2
20260906135853 83 28 1.0 3.0 0.00 0.00 0.00 90 1012.2
20260906135754 83 28 2.0 3.0 0.00 0.00 0.00 90 1012.2
20260906135652 83 28 1.0 3.0 0.00 0.00 0.00 90 1012.2
20260906135552 83 56 0.0 3.0 0.00 0.00 0.00 90 1012.2
20260906135451 83 56 1.0 3.0 0.00 0.00 0.00 91 1012.2
20260906135352 83 56 1.0 3.0 0.00 0.00 0.00 91 1012.2
20260906135252 83 56 0.0 3.0 0.00 0.00 0.00 91 1012.2
20260906135151 82 56 0.0 3.0 0.00 0.00 0.00 91 1012.1
20260906135052 82 56 0.0 3.0 0.00 0.00 0.00 92 1012.1
20260906134953 82 56 0.0 3.0 0.00 0.00 0.00 92 1012.1
20260906134852 82 56 0.0 3.0 0.00 0.00 0.00 92 1012.2
20260906134751 82 56 1.0 4.0 0.00 0.00 0.00 92 1012.1
20260906134654 82 56 1.0 4.0 0.00 0.00 0.00 93 1012.2
20260906134552 82 56 1.0 4.0 0.00 0.00 0.00 93 1012.2
20260906134451 82 56 2.0 4.0 0.00 0.00 0.00 93 1012.1
20260906134351 81 56 2.0 4.0 0.00 0.00 0.00 93 1012.2
20260906134251 81 56 1.0 4.0 0.00 0.00 0.00 93 1012.2
20260906134152 81 56 1.0 4.0 0.00 0.00 0.00 93 1012.2
20260906134052 81 56 2.0 4.0 0.00 0.00 0.00 94 1012.2
20260906133953 81 56 3.0 4.0 0.00 0.00 0.00 94 1012.2
20260906133852 81 56 3.0 4.0 0.00 0.00 0.00 94 1012.2
20260906133751 81 55 3.0 4.0 0.00 0.00 0.00 94 1012.2
20260906133651 81 55 3.0 4.0 0.00 0.00 0.00 94 1012.2
20260906133553 81 55 3.0 4.0 0.00 0.00 0.00 94 1012.1
20260906133452 80 47 3.0 4.0 0.00 0.00 0.00 95 1012.1
20260906133351 80 45 3.0 4.0 0.00 0.00 0.00 95 1012.1
20260906133251 80 45 3.0 4.0 0.00 0.00 0.00 95 1012.1
20260906133151 80 45 3.0 4.0 0.00 0.00 0.00 95 1012.1
20260906133052 80 45 2.0 4.0 0.00 0.00 0.00 95 1012.1
20260906132952 80 45 1.0 4.0 0.00 0.00 0.00 95 1012.0
20260906132851 80 45 2.0 3.0 0.00 0.00 0.00 95 1012.1
20260906132751 80 45 1.0 3.0 0.00 0.00 0.00 95 1012.0
20260906132651 80 45 0.0 3.0 0.00 0.00 0.00 96 1011.9
20260906132553 80 45 1.0 3.0 0.00 0.00 0.00 96 1011.9
20260906132451 80 45 1.0 4.0 0.00 0.00 0.00 96 1012.0
20260906132352 80 45 1.0 4.0 0.00 0.00 0.00 96 1011.9
20260906132252 80 45 1.0 4.0 0.00 0.00 0.00 96 1011.9
20260906132154 80 45 2.0 4.0 0.00 0.00 0.00 96 1011.8
20260906132051 79 45 2.0 4.0 0.00 0.00 0.00 96 1011.9
20260906131951 79 45 2.0 4.0 0.00 0.00 0.00 96 1011.8
20260906131853 79 45 2.0 4.0 0.00 0.00 0.00 96 1011.8
20260906131752 79 45 2.0 4.0 0.00 0.00 0.00 96 1011.8
20260906131651 79 45 3.0 4.0 0.00 0.00 0.00 96 1011.8
20260906131551 79 45 3.0 4.0 0.00 0.00 0.00 96 1011.8
20260906131451 79 41 2.0 4.0 0.00 0.00 0.00 96 1011.9
20260906131351 79 72 2.0 4.0 0.00 0.00 0.00 96 1011.8
20260906131251 79 72 3.0 4.0 0.00 0.00 0.00 96 1011.8
20260906131152 79 73 3.0 4.0 0.00 0.00 0.00 96 1011.8
20260906131051 79 73 3.0 4.0 0.00 0.00 0.00 96 1011.8
20260906130951 79 73 3.0 4.0 0.00 0.00 0.00 96 1011.8
20260906130851 79 93 3.0 4.0 0.00 0.00 0.00 96 1011.8
20260906130750 79 93 2.0 4.0 0.00 0.00 0.00 96 1011.8
20260906130652 79 38 2.0 4.0 0.00 0.00 0.00 97 1011.8
20260906130551 79 38 3.0 4.0 0.00 0.00 0.00 97 1011.8
20260906130453 79 38 2.0 4.0 0.00 0.00 0.00 97 1011.7
20260906130351 79 38 3.0 4.0 0.00 0.00 0.00 97 1011.8
20260906130250 79 39 2.0 4.0 0.00 0.00 0.00 97 1011.8
20260906130150 79 41 2.0 5.0 0.00 0.00 0.00 97 1011.7
20260906130052 79 42 2.0 5.0 0.00 0.00 0.00 97 1011.8
20260906125950 79 42 2.0 5.0 0.00 0.00 0.00 97 1011.8
20260906125850 78 42 2.0 5.0 0.00 0.00 0.00 97 1011.8
20260906125752 78 44 2.0 5.0 0.00 0.00 0.00 97 1011.7
20260906125650 78 44 2.0 5.0 0.00 0.00 0.00 97 1011.7
20260906125551 78 62 1.0 5.0 0.00 0.00 0.00 97 1011.7
20260906125452 78 62 2.0 5.0 0.00 0.00 0.00 97 1011.7
20260906125351 78 63 3.0 5.0 0.00 0.00 0.00 97 1011.6
20260906125250 78 80 3.0 5.0 0.00 0.00 0.00 97 1011.6
20260906125150 78 49 2.0 4.0 0.00 0.00 0.00 97 1011.5
20260906125052 78 44 2.0 4.0 0.00 0.00 0.00 97 1011.5
20260906124951 78 44 2.0 4.0 0.00 0.00 0.00 97 1011.6
20260906124850 78 44 2.0 5.0 0.00 0.00 0.00 97 1011.6
20260906124753 78 44 3.0 5.0 0.00 0.00 0.00 97 1011.5
20260906124650 78 45 2.0 6.0 0.00 0.00 0.00 97 1011.5
20260906124551 78 69 2.0 6.0 0.00 0.00 0.00 97 1011.5
20260906124451 78 69 1.0 6.0 0.00 0.00 0.00 97 1011.5
20260906124352 78 69 1.0 6.0 0.00 0.00 0.00 97 1011.5
20260906124250 78 69 2.0 6.0 0.00 0.00 0.00 97 1011.5
20260906124150 78 69 2.0 6.0 0.00 0.00 0.00 97 1011.5
20260906124051 78 31 3.0 6.0 0.00 0.00 0.00 97 1011.4
20260906123950 78 31 4.0 6.0 0.00 0.00 0.00 97 1011.4
20260906123851 78 28 4.0 6.0 0.00 0.00 0.00 97 1011.4
20260906123752 78 28 3.0 6.0 0.00 0.00 0.00 97 1011.4
20260906123652 78 23 3.0 4.0 0.00 0.00 0.00 97 1011.4
20260906123549 78 31 3.0 4.0 0.00 0.00 0.00 97 1011.4
20260906123449 78 27 2.0 4.0 0.00 0.00 0.00 97 1011.5
20260906123352 78 27 2.0 5.0 0.00 0.00 0.00 97 1011.4
20260906123250 78 27 2.0 5.0 0.00 0.00 0.00 97 1011.4
20260906123149 78 25 2.0 5.0 0.00 0.00 0.00 97 1011.5
20260906123050 78 25 2.0 5.0 0.00 0.00 0.00 97 1011.4
20260906122951 78 25 2.0 5.0 0.00 0.00 0.00 97 1011.4
20260906122849 78 24 2.0 5.0 0.00 0.00 0.00 97 1011.4
20260906122749 78 24 2.0 5.0 0.00 0.00 0.00 97 1011.4
20260906122651 78 23 2.0 5.0 0.00 0.00 0.00 97 1011.3
20260906122549 78 31 3.0 5.0 0.00 0.00 0.00 97 1011.3
20260906122449 78 17 4.0 5.0 0.00 0.00 0.00 97 1011.2
20260906122350 78 16 3.0 5.0 0.00 0.00 0.00 97 1011.1
20260906122250 78 14 3.0 5.0 0.00 0.00 0.00 97 1011.1
20260906122149 78 13 3.0 5.0 0.00 0.00 0.00 97 1011.1
20260906122049 78 14 3.0 5.0 0.00 0.00 0.00 97 1011.1
20260906121951 78 13 2.0 5.0 0.00 0.00 0.00 97 1011.1
20260906121850 77 13 2.0 4.0 0.00 0.00 0.00 96 1011.1
20260906121749 78 13 2.0 4.0 0.00 0.00 0.00 97 1011.0
20260906121651 78 13 1.0 4.0 0.00 0.00 0.00 96 1011.1
20260906121550 78 13 2.0 4.0 0.00 0.00 0.00 96 1011.0
20260906121450 78 13 2.0 4.0 0.00 0.00 0.00 96 1011.1
20260906121350 77 11 2.0 4.0 0.00 0.00 0.00 96 1011.1
20260906121250 77 13 2.0 4.0 0.00 0.00 0.00 96 1011.1
20260906121149 77 11 2.0 4.0 0.00 0.00 0.00 96 1011.0
20260906121049 77 11 2.0 4.0 0.00 0.00 0.00 96 1011.0
20260906120950 77 11 3.0 4.0 0.00 0.00 0.00 96 1011.1
20260906120851 77 11 2.0 4.0 0.00 0.00 0.00 96 1011.1
20260906120750 77 11 2.0 4.0 0.00 0.00 0.00 96 1011.1
20260906120649 78 11 2.0 4.0 0.00 0.00 0.00 96 1011.1
20260906120551 78 11 2.0 4.0 0.00 0.00 0.00 96 1011.1
20260906120449 78 11 1.0 3.0 0.00 0.00 0.00 96 1011.0
20260906120349 78 11 0.0 0.0 0.00 0.00 0.00 96 1011.0
20260906120250 78 11 0.0 0.0 0.00 0.00 0.00 96 1011.0
20260906120150 77 13 0.0 0.0 0.00 0.00 0.00 96 1011.0
20260906120049 77 11 0.0 0.0 0.00 0.00 0.00 96 1011.0
20260906115950 78 11 0.0 0.0 0.00 0.00 0.00 96 1011.0
20260906115850 77 14 0.0 0.0 0.00 0.00 0.00 96 1011.1
20260906115749 78 13 0.0 0.0 0.00 0.00 0.00 96 1011.0
20260906115649 77 13 0.0 0.0 0.00 0.00 0.00 96 1011.0
20260906115549 78 13 0.0 0.0 0.00 0.00 0.00 96 1011.0
20260906115449 78 13 0.0 0.0 0.00 0.00 0.00 96 1011.0
20260906115346 78 13 0.0 0.0 0.00 0.00 0.00 96 1011.1
20260906115247 78 14 0.0 0.0 0.00 0.00 0.00 96 1011.0
20260906115143 78 13 0.0 0.0 0.00 0.00 0.00 96 1011.0
20260906115043 78 13 0.0 0.0 0.00 0.00 0.00 96 1011.0
20260906114932 78 13 0.0 0.0 0.00 0.00 0.00 96 1011.0
20260906114831 78 13 0.0 0.0 0.00 0.00 0.00 96 1011.0
20260906114731 78 13 0.0 0.0 0.00 0.00 0.00 96 1011.0
20260906114632 77 13 0.0 0.0 0.00 0.00 0.00 96 1011.0
20260906114532 77 13 0.0 0.0 0.00 0.00 0.00 96 1011.0
20260906114431 78 13 0.0 0.0 0.00 0.00 0.00 96 1010.9
20260906114332 78 13 0.0 0.0 0.00 0.00 0.00 96 1010.9
20260906114232 78 13 0.0 0.0 0.00 0.00 0.00 96 1010.9
20260906114132 78 13 0.0 0.0 0.00 0.00 0.00 96 1010.8
20260906114033 77 13 0.0 0.0 0.00 0.00 0.00 96 1010.9
20260906113932 78 14 0.0 0.0 0.00 0.00 0.00 96 1010.8
20260906113832 77 13 0.0 0.0 0.00 0.00 0.00 96 1010.8
20260906113731 78 13 0.0 0.0 0.00 0.00 0.00 96 1010.8
20260906113631 78 13 0.0 0.0 0.00 0.00 0.00 96 1010.8
20260906113532 78 13 0.0 0.0 0.00 0.00 0.00 96 1010.8
20260906113431 78 13 0.0 0.0 0.00 0.00 0.00 96 1010.8
20260906113331 78 13 0.0 0.0 0.00 0.00 0.00 96 1010.9
20260906113232 78 13 0.0 0.0 0.00 0.00 0.00 96 1010.9
20260906113131 78 13 0.0 0.0 0.00 0.00 0.00 96 1010.8
20260906113031 78 13 0.0 0.0 0.00 0.00 0.00 96 1010.8
20260906112932 78 13 0.0 0.0 0.00 0.00 0.00 96 1010.8
20260906112830 78 13 0.0 0.0 0.00 0.00 0.00 96 1010.8
20260906112727 78 13 0.0 0.0 0.00 0.00 0.00 96 1010.8
20260906112627 78 13 0.0 0.0 0.00 0.00 0.00 96 1010.8
20260906112526 78 14 0.0 0.0 0.00 0.00 0.00 96 1010.8
20260906112422 78 13 0.0 0.0 0.00 0.00 0.00 96 1010.8
20260906112324 78 13 0.0 0.0 0.00 0.00 0.00 96 1010.8
20260906112222 78 14 0.0 0.0 0.00 0.00 0.00 96 1010.7
20260906112120 78 13 0.0 0.0 0.00 0.00 0.00 96 1010.8
20260906112018 78 13 0.0 0.0 0.00 0.00 0.00 96 1010.8
20260906111917 78 14 0.0 0.0 0.00 0.00 0.00 96 1010.7
20260906111814 78 13 0.0 0.0 0.00 0.00 0.00 96 1010.7
20260906111713 78 14 0.0 0.0 0.00 0.00 0.00 96 1010.6
20260906111612 78 14 0.0 0.0 0.00 0.00 0.00 96 1010.6
20260906111510 78 14 0.0 0.0 0.00 0.00 0.00 96 1010.7
20260906111406 78 13 0.0 0.0 0.00 0.00 0.00 96 1010.8
20260906111303 78 13 0.0 0.0 0.00 0.00 0.00 96 1010.6
20260906111204 78 13 0.0 0.0 0.00 0.00 0.00 96 1010.7
20260906111103 78 13 0.0 0.0 0.00 0.00 0.00 96 1010.7
20260906111003 78 13 0.0 0.0 0.00 0.00 0.00 96 1010.7
20260906110902 78 13 0.0 0.0 0.00 0.00 0.00 96 1010.7
20260906110802 78 13 0.0 0.0 0.00 0.00 0.00 96 1010.7
20260906110702 78 13 0.0 0.0 0.00 0.00 0.00 96 1010.8
20260906110603 78 13 0.0 0.0 0.00 0.00 0.00 96 1010.7
20260906110502 78 13 0.0 0.0 0.00 0.00 0.00 96 1010.7
20260906110402 78 13 0.0 0.0 0.00 0.00 0.00 96 1010.7
20260906110303 78 13 0.0 0.0 0.00 0.00 0.00 96 1010.7
20260906110202 78 13 0.0 0.0 0.00 0.00 0.00 96 1010.8
20260906110003 78 13 0.0 0.0 0.00 0.00 0.00 96 1010.7
20260906105903 78 13 0.0 0.0 0.00 0.00 0.00 96 1010.7
20260906105804 78 13 0.0 0.0 0.00 0.00 0.00 96 1010.6
20260906105703 78 13 0.0 0.0 0.00 0.00 0.00 96 1010.6
20260906105603 78 13 0.0 0.0 0.00 0.00 0.00 96 1010.6
20260906105502 78 13 0.0 0.0 0.00 0.00 0.00 96 1010.6
20260906105402 78 13 0.0 0.0 0.00 0.00 0.00 96 1010.7
20260906105306 78 13 0.0 0.0 0.00 0.00 0.00 96 1010.6
20260906105203 78 13 0.0 0.0 0.00 0.00 0.00 96 1010.6
20260906105103 78 13 0.0 0.0 0.00 0.00 0.00 96 1010.6
20260906105003 78 13 0.0 0.0 0.00 0.00 0.00 96 1010.5
20260906104903 78 13 0.0 0.0 0.00 0.00 0.00 96 1010.5
20260906104802 78 13 0.0 0.0 0.00 0.00 0.00 96 1010.6
20260906104703 78 13 0.0 2.0 0.00 0.00 0.00 96 1010.6
20260906104603 78 13 0.0 2.0 0.00 0.00 0.00 96 1010.5
20260906104502 78 13 0.0 2.0 0.00 0.00 0.00 96 1010.5
20260906104402 78 13 0.0 2.0 0.00 0.00 0.00 96 1010.5
20260906104304 78 13 0.0 2.0 0.00 0.00 0.00 96 1010.5
20260906104202 78 13 0.0 2.0 0.00 0.00 0.00 96 1010.5
20260906104101 78 13 0.0 2.0 0.00 0.00 0.00 96 1010.5
20260906104004 78 13 0.0 2.0 0.00 0.00 0.00 96 1010.5
20260906103902 78 13 0.0 3.0 0.00 0.00 0.00 96 1010.5
20260906103802 78 13 0.0 3.0 0.00 0.00 0.00 96 1010.5
20260906103702 78 13 0.0 3.0 0.00 0.00 0.00 96 1010.5
20260906103603 78 13 0.0 3.0 0.00 0.00 0.00 95 1010.4
20260906103503 78 13 0.0 3.0 0.00 0.00 0.00 96 1010.4
20260906103403 78 13 0.0 3.0 0.00 0.00 0.00 96 1010.4
20260906103304 78 13 1.0 3.0 0.00 0.00 0.00 95 1010.4
20260906103203 78 13 1.0 3.0 0.00 0.00 0.00 95 1010.3
20260906103102 78 13 1.0 3.0 0.00 0.00 0.00 95 1010.3
20260906103002 78 13 2.0 3.0 0.00 0.00 0.00 95 1010.4
20260906102903 78 13 2.0 3.0 0.00 0.00 0.00 95 1010.3
20260906102801 78 13 2.0 3.0 0.00 0.00 0.00 95 1010.3
20260906102702 78 13 2.0 3.0 0.00 0.00 0.00 95 1010.3
20260906102604 78 13 2.0 3.0 0.00 0.00 0.00 95 1010.3
20260906102503 78 13 1.0 3.0 0.00 0.00 0.00 95 1010.3
20260906102402 78 13 0.0 3.0 0.00 0.00 0.00 95 1010.3
20260906102305 78 13 0.0 2.0 0.00 0.00 0.00 95 1010.3
20260906102201 78 13 0.0 2.0 0.00 0.00 0.00 95 1010.4
20260906102102 78 13 0.0 2.0 0.00 0.00 0.00 95 1010.3
20260906102002 78 13 0.0 2.0 0.00 0.00 0.00 95 1010.3
20260906101903 78 13 1.0 2.0 0.00 0.00 0.00 95 1010.3
20260906101803 78 13 1.0 2.0 0.00 0.00 0.00 95 1010.3
20260906101702 78 13 1.0 3.0 0.00 0.00 0.00 95 1010.2
20260906101602 78 13 0.0 3.0 0.00 0.00 0.00 95 1010.3
20260906101504 78 13 1.0 3.0 0.00 0.00 0.00 95 1010.3
20260906101403 78 13 1.0 3.0 0.00 0.00 0.00 95 1010.3
20260906101303 78 13 1.0 3.0 0.00 0.00 0.00 95 1010.3
20260906101203 78 13 1.0 3.0 0.00 0.00 0.00 95 1010.3
20260906101103 78 13 1.0 3.0 0.00 0.00 0.00 95 1010.3
20260906101003 78 13 2.0 3.0 0.00 0.00 0.00 95 1010.2
20260906100903 78 13 2.0 3.0 0.00 0.00 0.00 95 1010.2
20260906100803 78 13 2.0 3.0 0.00 0.00 0.00 95 1010.2
20260906100703 78 13 2.0 2.0 0.00 0.00 0.00 95 1010.3
20260906100603 78 13 2.0 2.0 0.00 0.00 0.00 95 1010.3
20260906100504 78 13 2.0 2.0 0.00 0.00 0.00 95 1010.3
20260906100402 78 13 2.0 2.0 0.00 0.00 0.00 95 1010.3
20260906100302 78 13 1.0 2.0 0.00 0.00 0.00 95 1010.3
20260906100204 78 13 1.0 2.0 0.00 0.00 0.00 95 1010.3
20260906100003 78 13 0.0 2.0 0.00 0.00 0.00 95 1010.3
20260906095902 78 13 1.0 2.0 0.00 0.00 0.00 95 1010.4
20260906095803 78 13 0.0 2.0 0.00 0.00 0.00 95 1010.3
20260906095702 78 14 0.0 3.0 0.00 0.00 0.00 95 1010.3
20260906095602 78 13 0.0 3.0 0.00 0.00 0.00 95 1010.3
20260906095504 78 13 1.0 3.0 0.00 0.00 0.00 95 1010.3
20260906095403 78 13 0.0 3.0 0.00 0.00 0.00 95 1010.3
20260906095306 78 13 0.0 3.0 0.00 0.00 0.00 95 1010.2
20260906095204 78 13 0.0 3.0 0.00 0.00 0.00 95 1010.2
20260906095103 78 13 0.0 3.0 0.00 0.00 0.00 95 1010.2
20260906095003 78 13 1.0 3.0 0.00 0.00 0.00 95 1010.3
20260906094902 78 13 2.0 3.0 0.00 0.00 0.00 95 1010.2
20260906094803 78 13 2.0 3.0 0.00 0.00 0.00 95 1010.2
20260906094703 78 13 2.0 3.0 0.00 0.00 0.00 95 1010.3
20260906094604 78 13 2.0 4.0 0.00 0.00 0.00 95 1010.3
20260906094503 78 13 2.0 4.0 0.00 0.00 0.00 95 1010.3
20260906094403 78 13 1.0 4.0 0.00 0.00 0.00 95 1010.3
20260906094302 78 13 1.0 4.0 0.00 0.00 0.00 95 1010.3
20260906094202 78 13 2.0 4.0 0.00 0.00 0.00 95 1010.3
20260906094104 78 13 2.0 4.0 0.00 0.00 0.00 95 1010.4
20260906094003 78 13 1.0 4.0 0.00 0.00 0.00 95 1010.2
20260906093903 78 13 1.0 4.0 0.00 0.00 0.00 95 1010.2
20260906093804 78 14 2.0 4.0 0.00 0.00 0.00 95 1010.3
20260906093703 78 13 3.0 4.0 0.00 0.00 0.00 95 1010.2
20260906093602 78 13 2.0 4.0 0.00 0.00 0.00 95 1010.2
20260906093502 78 13 3.0 4.0 0.00 0.00 0.00 95 1010.3
20260906093403 78 13 3.0 4.0 0.00 0.00 0.00 95 1010.3
20260906093303 78 13 2.0 3.0 0.00 0.00 0.00 95 1010.3
20260906093202 78 18 2.0 4.0 0.00 0.00 0.00 95 1010.2
20260906093103 78 18 3.0 4.0 0.00 0.00 0.00 95 1010.3
20260906093002 79 18 2.0 4.0 0.00 0.00 0.00 95 1010.3
20260906092902 79 18 2.0 4.0 0.00 0.00 0.00 95 1010.3
20260906092804 79 18 2.0 4.0 0.00 0.00 0.00 95 1010.3
20260906092704 79 18 2.0 4.0 0.00 0.00 0.00 95 1010.3
20260906092602 79 18 2.0 4.0 0.00 0.00 0.00 94 1010.3
20260906092502 79 18 2.0 4.0 0.00 0.00 0.00 94 1010.3
20260906092403 79 18 2.0 4.0 0.00 0.00 0.00 94 1010.1
20260906092305 79 18 2.0 4.0 0.00 0.00 0.00 94 1010.1
20260906092202 79 18 1.0 4.0 0.00 0.00 0.00 94 1010.1
20260906092104 79 18 2.0 4.0 0.00 0.00 0.00 94 1010.1
20260906092002 79 18 2.0 4.0 0.00 0.00 0.00 94 1010.1
20260906091903 79 18 2.0 4.0 0.00 0.00 0.00 94 1010.1
20260906091802 79 18 1.0 4.0 0.00 0.00 0.00 94 1010.1
20260906091703 79 18 2.0 4.0 0.00 0.00 0.00 94 1010.2
20260906091602 79 20 2.0 4.0 0.00 0.00 0.00 94 1010.2
20260906091502 79 20 3.0 4.0 0.00 0.00 0.00 94 1010.1
20260906091403 79 18 3.0 4.0 0.00 0.00 0.00 94 1010.1
20260906091303 79 18 3.0 4.0 0.00 0.00 0.00 94 1010.1
20260906091202 79 14 3.0 4.0 0.00 0.00 0.00 94 1010.1
20260906091102 79 13 3.0 4.0 0.00 0.00 0.00 94 1010.1
20260906091003 79 13 3.0 4.0 0.00 0.00 0.00 94 1010.2
20260906090903 79 13 3.0 4.0 0.00 0.00 0.00 94 1010.1
20260906090802 79 13 3.0 4.0 0.00 0.00 0.00 94 1010.1
20260906090704 79 13 2.0 3.0 0.00 0.00 0.00 94 1010.1
20260906090603 79 13 1.0 3.0 0.00 0.00 0.00 94 1010.1
20260906090503 79 13 0.0 2.0 0.00 0.00 0.00 94 1010.1
20260906090404 79 13 1.0 2.0 0.00 0.00 0.00 94 1010.0
20260906090303 79 13 1.0 2.0 0.00 0.00 0.00 94 1010.1
20260906090202 79 13 1.0 3.0 0.00 0.00 0.00 94 1010.1
20260906090004 79 13 1.0 3.0 0.00 0.00 0.00 94 1010.1
20260906085903 79 13 1.0 3.0 0.00 0.00 0.00 94 1010.1
20260906085802 79 13 1.0 3.0 0.00 0.00 0.00 94 1010.1
20260906085704 79 13 2.0 3.0 0.00 0.00 0.00 94 1010.1
20260906085603 79 13 2.0 3.0 0.00 0.00 0.00 94 1010.1
20260906085503 79 13 1.0 3.0 0.00 0.00 0.00 94 1010.1
20260906085402 79 13 2.0 3.0 0.00 0.00 0.00 94 1010.0
20260906085306 79 13 2.0 3.0 0.00 0.00 0.00 94 1010.0
20260906085203 79 13 2.0 3.0 0.00 0.00 0.00 94 1010.1
20260906085102 79 13 2.0 3.0 0.00 0.00 0.00 94 1010.0
20260906085004 79 13 2.0 3.0 0.00 0.00 0.00 94 1010.1
20260906084902 79 13 2.0 3.0 0.00 0.00 0.00 94 1010.1
20260906084804 79 13 2.0 3.0 0.00 0.00 0.00 94 1010.0
20260906084703 79 13 2.0 3.0 0.00 0.00 0.00 94 1010.0
20260906084602 79 13 2.0 3.0 0.00 0.00 0.00 94 1010.0
20260906084505 79 13 1.0 3.0 0.00 0.00 0.00 94 1010.0
20260906084402 79 13 1.0 3.0 0.00 0.00 0.00 94 1010.0
20260906084303 79 13 0.0 0.0 0.00 0.00 0.00 94 1009.9
20260906084202 79 13 0.0 0.0 0.00 0.00 0.00 94 1009.9
20260906084102 79 13 0.0 0.0 0.00 0.00 0.00 94 1009.9
20260906084005 79 13 0.0 0.0 0.00 0.00 0.00 94 1009.9
20260906083903 79 13 0.0 0.0 0.00 0.00 0.00 94 1009.9
20260906083802 79 13 0.0 0.0 0.00 0.00 0.00 94 1009.9
20260906083703 79 13 0.0 0.0 0.00 0.00 0.00 94 1009.9
20260906083602 79 13 0.0 0.0 0.00 0.00 0.00 94 1009.9
20260906083502 79 13 0.0 1.0 0.00 0.00 0.00 94 1009.9
20260906083402 79 13 0.0 2.0 0.00 0.00 0.00 94 1009.9
20260906083303 79 13 0.0 2.0 0.00 0.00 0.00 94 1009.9
20260906083202 79 13 0.0 2.0 0.00 0.00 0.00 94 1010.0
20260906083102 79 13 0.0 2.0 0.00 0.00 0.00 94 1010.1
20260906083004 79 13 0.0 2.0 0.00 0.00 0.00 94 1010.0
20260906082903 79 13 0.0 2.0 0.00 0.00 0.00 94 1010.0
20260906082803 79 13 0.0 2.0 0.00 0.00 0.00 94 1010.0
20260906082702 79 13 0.0 3.0 0.00 0.00 0.00 94 1010.0
20260906082603 79 13 1.0 3.0 0.00 0.00 0.00 94 1010.0
20260906082502 79 13 1.0 3.0 0.00 0.00 0.00 94 1010.0
20260906082403 79 13 0.0 3.0 0.00 0.00 0.00 94 1010.0
20260906082305 79 13 0.0 4.0 0.00 0.00 0.00 94 1010.1
20260906082203 79 13 0.0 4.0 0.00 0.00 0.00 94 1010.1
20260906082102 79 13 0.0 4.0 0.00 0.00 0.00 94 1010.1
20260906082003 79 13 1.0 4.0 0.00 0.00 0.00 94 1010.1
20260906081904 79 13 2.0 4.0 0.00 0.00 0.00 93 1010.2
20260906081801 79 13 2.0 4.0 0.00 0.00 0.00 93 1010.2
20260906081703 79 13 2.0 4.0 0.00 0.00 0.00 93 1010.1
20260906081603 79 13 2.0 4.0 0.00 0.00 0.00 93 1010.2
20260906081503 79 13 3.0 4.0 0.00 0.00 0.00 93 1010.2
20260906081403 79 13 3.0 4.0 0.00 0.00 0.00 93 1010.2
20260906081301 79 13 3.0 4.0 0.00 0.00 0.00 93 1010.3
20260906081202 79 13 3.0 4.0 0.00 0.00 0.00 93 1010.2
20260906081102 79 13 3.0 4.0 0.00 0.00 0.00 93 1010.2
20260906081005 79 13 3.0 4.0 0.00 0.00 0.00 93 1010.2
20260906080905 79 13 2.0 4.0 0.00 0.00 0.00 93 1010.2
20260906080802 79 13 2.0 4.0 0.00 0.00 0.00 93 1010.2
20260906080703 79 13 2.0 4.0 0.00 0.00 0.00 93 1010.2
20260906080604 79 13 2.0 4.0 0.00 0.00 0.00 93 1010.2
20260906080503 79 13 2.0 3.0 0.00 0.00 0.00 93 1010.2
20260906080403 79 13 2.0 3.0 0.00 0.00 0.00 93 1010.2
20260906080301 79 13 2.0 3.0 0.00 0.00 0.00 93 1010.2
20260906080204 79 13 2.0 3.0 0.00 0.00 0.00 93 1010.2
20260906080003 79 13 2.0 3.0 0.00 0.00 0.00 93 1010.2
20260906075903 79 13 2.0 4.0 0.00 0.00 0.00 93 1010.1
20260906075804 79 13 2.0 4.0 0.00 0.00 0.00 93 1010.1
20260906075702 79 13 2.0 4.0 0.00 0.00 0.00 93 1010.1
20260906075602 79 13 2.0 4.0 0.00 0.00 0.00 93 1010.1
20260906075503 79 13 1.0 4.0 0.00 0.00 0.00 93 1010.2
20260906075402 79 13 2.0 4.0 0.00 0.00 0.00 93 1010.1
20260906075306 79 13 2.0 4.0 0.00 0.00 0.00 93 1010.2
20260906075203 79 13 2.0 5.0 0.00 0.00 0.00 93 1010.2
20260906075102 80 13 2.0 5.0 0.00 0.00 0.00 93 1010.1
20260906075004 79 13 2.0 5.0 0.00 0.00 0.00 93 1010.2
20260906074904 79 13 2.0 5.0 0.00 0.00 0.00 93 1010.2
20260906074803 79 13 3.0 5.0 0.00 0.00 0.00 93 1010.3
20260906074702 79 13 3.0 5.0 0.00 0.00 0.00 93 1010.3
20260906074602 79 13 3.0 5.0 0.00 0.00 0.00 93 1010.3
20260906074503 80 13 3.0 5.0 0.00 0.00 0.00 93 1010.3
20260906074402 79 13 3.0 5.0 0.00 0.00 0.00 93 1010.3
20260906074303 80 14 3.0 5.0 0.00 0.00 0.00 93 1010.2
20260906074204 80 14 3.0 4.0 0.00 0.00 0.00 93 1010.3
20260906074103 80 14 3.0 4.0 0.00 0.00 0.00 93 1010.3
20260906074003 80 17 2.0 3.0 0.00 0.00 0.00 93 1010.4
20260906073902 80 18 2.0 3.0 0.00 0.00 0.00 93 1010.4
20260906073802 80 18 2.0 3.0 0.00 0.00 0.00 93 1010.3
20260906073702 80 18 2.0 3.0 0.00 0.00 0.00 92 1010.4
20260906073602 80 18 2.0 3.0 0.00 0.00 0.00 93 1010.4
20260906073504 80 18 1.0 3.0 0.00 0.00 0.00 93 1010.4
20260906073403 80 21 0.0 2.0 0.00 0.00 0.00 92 1010.4
20260906073302 80 21 0.0 0.0 0.00 0.00 0.00 92 1010.4
20260906073202 80 21 0.0 0.0 0.00 0.00 0.00 92 1010.4
20260906073103 80 21 0.0 0.0 0.00 0.00 0.00 92 1010.4
20260906073004 80 21 0.0 0.0 0.00 0.00 0.00 92 1010.4
20260906072903 80 21 0.0 2.0 0.00 0.00 0.00 92 1010.4
20260906072804 80 21 0.0 2.0 0.00 0.00 0.00 92 1010.4
20260906072702 80 21 0.0 2.0 0.00 0.00 0.00 92 1010.4
20260906072603 80 21 0.0 2.0 0.00 0.00 0.00 92 1010.4
20260906072502 80 21 0.0 2.0 0.00 0.00 0.00 92 1010.4
20260906072403 80 21 0.0 2.0 0.00 0.00 0.00 92 1010.4
20260906072306 80 23 1.0 2.0 0.00 0.00 0.00 92 1010.4
20260906072203 80 23 1.0 2.0 0.00 0.00 0.00 92 1010.3
20260906072103 80 23 1.0 2.0 0.00 0.00 0.00 92 1010.4
20260906071947 80 21 1.0 2.0 0.00 0.00 0.00 92 1010.4
20260906071845 80 21 2.0 2.0 0.00 0.00 0.00 92 1010.4
20260906071744 80 21 1.0 2.0 0.00 0.00 0.00 92 1010.3
20260906071643 80 21 0.0 2.0 0.00 0.00 0.00 92 1010.4
20260906071543 80 48 0.0 0.0 0.00 0.00 0.00 92 1010.4
20260906071444 80 48 0.0 0.0 0.00 0.00 0.00 92 1010.3
20260906071343 80 48 0.0 0.0 0.00 0.00 0.00 92 1010.3
20260906071243 80 48 0.0 0.0 0.00 0.00 0.00 92 1010.4
20260906071142 80 48 0.0 0.0 0.00 0.00 0.00 91 1010.4
20260906071042 80 48 0.0 0.0 0.00 0.00 0.00 91 1010.4
20260906070942 80 48 0.0 0.0 0.00 0.00 0.00 91 1010.3
20260906070843 80 48 0.0 0.0 0.00 0.00 0.00 91 1010.4
20260906070743 80 48 0.0 0.0 0.00 0.00 0.00 91 1010.4
20260906070642 80 48 0.0 0.0 0.00 0.00 0.00 91 1010.3
20260906070542 80 48 0.0 0.0 0.00 0.00 0.00 91 1010.4
20260906070442 80 48 0.0 0.0 0.00 0.00 0.00 91 1010.5
20260906070343 80 48 0.0 0.0 0.00 0.00 0.00 91 1010.5
20260906070244 80 48 0.0 0.0 0.00 0.00 0.00 91 1010.5
20260906070142 80 48 0.0 0.0 0.00 0.00 0.00 91 1010.4
20260906070044 80 48 0.0 0.0 0.00 0.00 0.00 91 1010.5
20260906065943 80 48 0.0 1.0 0.00 0.00 0.00 91 1010.4
20260906065843 80 48 0.0 2.0 0.00 0.00 0.00 91 1010.4
20260906065743 80 48 0.0 2.0 0.00 0.00 0.00 91 1010.4
20260906065642 80 48 0.0 2.0 0.00 0.00 0.00 91 1010.4
20260906065542 80 48 0.0 2.0 0.00 0.00 0.00 91 1010.4
20260906065444 80 48 0.0 2.0 0.00 0.00 0.00 92 1010.4
20260906065344 80 48 0.0 2.0 0.00 0.00 0.00 92 1010.3
20260906065242 80 48 0.0 2.0 0.00 0.00 0.00 91 1010.4
20260906065142 80 48 0.0 2.0 0.00 0.00 0.00 91 1010.4
20260906065043 80 48 1.0 2.0 0.00 0.00 0.00 92 1010.4
20260906064943 80 48 1.0 2.0 0.00 0.00 0.00 91 1010.4
20260906064842 80 47 1.0 2.0 0.00 0.00 0.00 91 1010.4
20260906064741 80 47 1.0 2.0 0.00 0.00 0.00 92 1010.4
20260906064644 80 47 0.0 2.0 0.00 0.00 0.00 92 1010.5
20260906064542 80 45 0.0 0.0 0.00 0.00 0.00 91 1010.5
20260906064442 80 45 0.0 0.0 0.00 0.00 0.00 92 1010.4
20260906064343 80 45 0.0 0.0 0.00 0.00 0.00 92 1010.5
20260906064243 80 45 0.0 0.0 0.00 0.00 0.00 91 1010.4
20260906064143 80 45 0.0 0.0 0.00 0.00 0.00 91 1010.4
20260906064043 80 45 0.0 0.0 0.00 0.00 0.00 91 1010.4
20260906063943 80 45 0.0 0.0 0.00 0.00 0.00 92 1010.4
20260906063841 80 45 0.0 0.0 0.00 0.00 0.00 92 1010.4
20260906063742 80 45 0.0 1.0 0.00 0.00 0.00 92 1010.3
20260906063641 80 45 0.0 2.0 0.00 0.00 0.00 92 1010.3
20260906063542 80 45 0.0 2.0 0.00 0.00 0.00 92 1010.4
20260906063441 80 45 0.0 2.0 0.00 0.00 0.00 92 1010.3
20260906063342 80 45 0.0 2.0 0.00 0.00 0.00 92 1010.4
20260906063243 80 45 0.0 2.0 0.00 0.00 0.00 92 1010.3
20260906063142 80 45 0.0 2.0 0.00 0.00 0.00 92 1010.3
20260906063042 80 45 0.0 2.0 0.00 0.00 0.00 92 1010.2
20260906062942 80 44 0.0 2.0 0.00 0.00 0.00 92 1010.3
20260906062841 80 44 1.0 2.0 0.00 0.00 0.00 92 1010.3
20260906062742 80 44 0.0 2.0 0.00 0.00 0.00 92 1010.2
20260906062641 80 44 0.0 1.0 0.00 0.00 0.00 92 1010.3
20260906062542 80 42 0.0 0.0 0.00 0.00 0.00 92 1010.3
20260906062441 80 44 0.0 0.0 0.00 0.00 0.00 92 1010.3
20260906062342 80 44 0.0 0.0 0.00 0.00 0.00 92 1010.3
20260906062243 80 44 0.0 0.0 0.00 0.00 0.00 92 1010.4
20260906062142 80 44 0.0 0.0 0.00 0.00 0.00 92 1010.4
20260906062042 80 45 0.0 0.0 0.00 0.00 0.00 92 1010.4
20260906061942 80 45 0.0 0.0 0.00 0.00 0.00 92 1010.3
20260906061842 80 45 0.0 0.0 0.00 0.00 0.00 92 1010.4
20260906061741 80 44 0.0 0.0 0.00 0.00 0.00 92 1010.5
20260906061642 80 45 0.0 0.0 0.00 0.00 0.00 91 1010.5
20260906061542 80 45 0.0 0.0 0.00 0.00 0.00 91 1010.4
20260906061441 80 45 0.0 0.0 0.00 0.00 0.00 91 1010.4
20260906061341 80 44 0.0 0.0 0.00 0.00 0.00 91 1010.4
20260906061242 80 45 0.0 0.0 0.00 0.00 0.00 91 1010.4
20260906061141 80 45 0.0 0.0 0.00 0.00 0.00 91 1010.4
20260906061041 80 44 0.0 0.0 0.00 0.00 0.00 91 1010.4
20260906060942 80 45 0.0 0.0 0.00 0.00 0.00 91 1010.4
20260906060842 80 44 0.0 0.0 0.00 0.00 0.00 91 1010.5
20260906060741 80 44 0.0 0.0 0.00 0.00 0.00 91 1010.4
20260906060641 80 44 0.0 0.0 0.00 0.00 0.00 91 1010.5
20260906060542 80 44 0.0 0.0 0.00 0.00 0.00 91 1010.5
20260906060442 80 44 0.0 0.0 0.00 0.00 0.00 91 1010.4
20260906060341 80 45 0.0 0.0 0.00 0.00 0.00 91 1010.5
20260906060240 80 44 0.0 0.0 0.00 0.00 0.00 91 1010.5
20260906060143 80 44 0.0 0.0 0.00 0.00 0.00 91 1010.5
20260906060042 80 44 0.0 0.0 0.00 0.00 0.00 91 1010.5
20260906055941 80 44 0.0 0.0 0.00 0.00 0.00 91 1010.5
20260906055842 80 44 0.0 0.0 0.00 0.00 0.00 91 1010.6
20260906055740 80 44 0.0 0.0 0.00 0.00 0.00 91 1010.5
20260906055643 80 44 0.0 1.0 0.00 0.00 0.00 91 1010.5
20260906055541 80 44 0.0 2.0 0.00 0.00 0.00 91 1010.5
20260906055443 80 44 0.0 2.0 0.00 0.00 0.00 91 1010.6
20260906055341 80 44 0.0 2.0 0.00 0.00 0.00 91 1010.6
20260906055240 80 44 0.0 2.0 0.00 0.00 0.00 91 1010.6
20260906055141 80 44 0.0 2.0 0.00 0.00 0.00 91 1010.6
20260906055041 80 44 0.0 2.0 0.00 0.00 0.00 91 1010.6
20260906054941 80 42 0.0 2.0 0.00 0.00 0.00 91 1010.6
20260906054841 80 42 0.0 2.0 0.00 0.00 0.00 91 1010.5
20260906054741 80 42 0.0 2.0 0.00 0.00 0.00 91 1010.7
20260906054640 80 42 0.0 2.0 0.00 0.00 0.00 91 1010.6
20260906054540 80 42 0.0 2.0 0.00 0.00 0.00 91 1010.5
20260906054440 80 44 0.0 2.0 0.00 0.00 0.00 91 1010.6
20260906054341 80 44 0.0 2.0 0.00 0.00 0.00 91 1010.6
20260906054240 80 44 0.0 2.0 0.00 0.00 0.00 91 1010.5
20260906054140 80 42 0.0 2.0 0.00 0.00 0.00 91 1010.6
20260906054041 80 44 0.0 2.0 0.00 0.00 0.00 91 1010.6
20260906053940 80 44 1.0 2.0 0.00 0.00 0.00 91 1010.6
20260906053840 80 44 1.0 2.0 0.00 0.00 0.00 91 1010.5
20260906053742 80 44 1.0 2.0 0.00 0.00 0.00 91 1010.5
20260906053640 80 44 0.0 2.0 0.00 0.00 0.00 91 1010.6
20260906053540 80 44 0.0 2.0 0.00 0.00 0.00 91 1010.6
20260906053440 80 44 0.0 2.0 0.00 0.00 0.00 91 1010.6
20260906053342 80 44 1.0 2.0 0.00 0.00 0.00 91 1010.5
20260906053241 80 42 0.0 2.0 0.00 0.00 0.00 91 1010.5
20260906053140 80 44 1.0 2.0 0.00 0.00 0.00 91 1010.5
20260906053041 80 44 1.0 2.0 0.00 0.00 0.00 91 1010.5
20260906052940 80 44 0.0 2.0 0.00 0.00 0.00 91 1010.5
20260906052840 80 44 0.0 2.0 0.00 0.00 0.00 91 1010.4
20260906052740 80 44 0.0 2.0 0.00 0.00 0.00 91 1010.5
20260906052641 80 44 0.0 2.0 0.00 0.00 0.00 91 1010.4
20260906052542 80 44 0.0 2.0 0.00 0.00 0.00 91 1010.5
20260906052440 80 44 0.0 2.0 0.00 0.00 0.00 91 1010.5
20260906052341 80 44 0.0 2.0 0.00 0.00 0.00 91 1010.5
20260906052240 80 44 0.0 2.0 0.00 0.00 0.00 91 1010.5
20260906052141 80 44 1.0 2.0 0.00 0.00 0.00 91 1010.5
20260906052041 80 44 1.0 2.0 0.00 0.00 0.00 91 1010.5
20260906051942 80 45 1.0 2.0 0.00 0.00 0.00 91 1010.5
20260906051840 80 44 0.0 2.0 0.00 0.00 0.00 91 1010.4
20260906051740 80 44 1.0 2.0 0.00 0.00 0.00 91 1010.4
20260906051641 80 44 0.0 2.0 0.00 0.00 0.00 91 1010.4
20260906051540 80 45 0.0 2.0 0.00 0.00 0.00 91 1010.4
20260906051440 80 44 1.0 2.0 0.00 0.00 0.00 91 1010.4
20260906051340 80 45 0.0 2.0 0.00 0.00 0.00 91 1010.4
20260906051241 80 44 0.0 2.0 0.00 0.00 0.00 91 1010.4
20260906051140 80 45 0.0 2.0 0.00 0.00 0.00 91 1010.5
20260906051040 80 44 0.0 2.0 0.00 0.00 0.00 91 1010.4
20260906050941 80 44 1.0 2.0 0.00 0.00 0.00 90 1010.5
20260906050840 80 44 1.0 2.0 0.00 0.00 0.00 91 1010.5
20260906050739 80 44 0.0 2.0 0.00 0.00 0.00 90 1010.4
20260906050639 80 45 1.0 2.0 0.00 0.00 0.00 90 1010.4
20260906050542 80 45 1.0 2.0 0.00 0.00 0.00 90 1010.3
20260906050440 80 44 1.0 2.0 0.00 0.00 0.00 90 1010.3
20260906050339 80 44 1.0 2.0 0.00 0.00 0.00 90 1010.4
20260906050241 80 45 0.0 2.0 0.00 0.00 0.00 90 1010.4
20260906050140 80 45 0.0 2.0 0.00 0.00 0.00 90 1010.4
20260906050041 80 45 0.0 2.0 0.00 0.00 0.00 90 1010.4
20260906045939 80 45 0.0 2.0 0.00 0.00 0.00 90 1010.5
20260906045839 80 44 0.0 2.0 0.00 0.00 0.00 90 1010.5
20260906045739 80 45 0.0 2.0 0.00 0.00 0.00 90 1010.5
20260906045639 80 45 0.0 2.0 0.00 0.00 0.00 90 1010.5
20260906045540 80 45 0.0 2.0 0.00 0.00 0.00 90 1010.4
20260906045440 80 45 0.0 2.0 0.00 0.00 0.00 90 1010.5
20260906045341 80 45 0.0 2.0 0.00 0.00 0.00 90 1010.5
20260906045240 80 45 0.0 2.0 0.00 0.00 0.00 90 1010.4
20260906045139 80 47 0.0 2.0 0.00 0.00 0.00 90 1010.4
20260906045039 80 45 0.0 2.0 0.00 0.00 0.00 90 1010.5
20260906044939 80 45 1.0 2.0 0.00 0.00 0.00 90 1010.4
20260906044840 80 45 1.0 2.0 0.00 0.00 0.00 90 1010.4
20260906044739 80 45 1.0 3.0 0.00 0.00 0.00 90 1010.4
20260906044639 80 47 1.0 3.0 0.00 0.00 0.00 90 1010.5
20260906044540 80 45 1.0 3.0 0.00 0.00 0.00 90 1010.5
20260906044440 80 45 1.0 3.0 0.00 0.00 0.00 90 1010.5
20260906044339 80 45 1.0 3.0 0.00 0.00 0.00 90 1010.5
20260906044239 80 45 0.0 3.0 0.00 0.00 0.00 90 1010.5
20260906044139 80 47 0.0 3.0 0.00 0.00 0.00 90 1010.4
20260906044039 80 45 0.0 3.0 0.00 0.00 0.00 90 1010.4
20260906043940 80 45 1.0 3.0 0.00 0.00 0.00 90 1010.4
20260906043840 80 47 1.0 3.0 0.00 0.00 0.00 90 1010.4
20260906043740 80 47 1.0 3.0 0.00 0.00 0.00 90 1010.5
20260906043639 80 41 1.0 3.0 0.00 0.00 0.00 90 1010.5
20260906043540 80 32 1.0 3.0 0.00 0.00 0.00 90 1010.4
20260906043440 80 32 1.0 3.0 0.00 0.00 0.00 90 1010.4
20260906043338 80 32 1.0 3.0 0.00 0.00 0.00 90 1010.5
20260906043239 80 32 2.0 3.0 0.00 0.00 0.00 90 1010.6
20260906043140 80 32 1.0 3.0 0.00 0.00 0.00 90 1010.6
20260906043039 80 32 2.0 3.0 0.00 0.00 0.00 90 1010.6
20260906042939 80 32 2.0 3.0 0.00 0.00 0.00 90 1010.6
20260906042840 80 31 1.0 3.0 0.00 0.00 0.00 90 1010.6
20260906042740 80 31 1.0 3.0 0.00 0.00 0.00 90 1010.7
20260906042638 80 31 2.0 3.0 0.00 0.00 0.00 90 1010.7
20260906042539 80 31 2.0 3.0 0.00 0.00 0.00 90 1010.7
20260906042441 80 31 2.0 3.0 0.00 0.00 0.00 90 1010.7
20260906042339 80 31 1.0 3.0 0.00 0.00 0.00 90 1010.7
20260906042239 80 31 0.0 3.0 0.00 0.00 0.00 90 1010.6
20260906042139 80 31 0.0 4.0 0.00 0.00 0.00 90 1010.6
20260906042039 80 31 0.0 4.0 0.00 0.00 0.00 90 1010.7
20260906041938 80 31 0.0 4.0 0.00 0.00 0.00 90 1010.7
20260906041840 80 31 1.0 5.0 0.00 0.00 0.00 90 1010.6
20260906041739 80 31 2.0 5.0 0.00 0.00 0.00 90 1010.7
20260906041638 80 31 2.0 5.0 0.00 0.00 0.00 90 1010.7
20260906041538 80 31 2.0 5.0 0.00 0.00 0.00 90 1010.6
20260906041438 80 31 2.0 5.0 0.00 0.00 0.00 90 1010.7
20260906041339 80 31 2.0 5.0 0.00 0.00 0.00 90 1010.7
20260906041239 80 31 3.0 5.0 0.00 0.00 0.00 90 1010.7
20260906041138 80 42 3.0 6.0 0.00 0.00 0.00 90 1010.6
20260906041040 80 35 4.0 6.0 0.00 0.00 0.00 90 1010.6
20260906040938 80 35 4.0 6.0 0.00 0.00 0.00 90 1010.6
20260906040840 80 44 3.0 6.0 0.00 0.00 0.00 90 1010.6
20260906040739 80 35 3.0 6.0 0.00 0.00 0.00 90 1010.6
20260906040638 80 38 3.0 6.0 0.00 0.00 0.00 90 1010.5
20260906040539 80 41 3.0 6.0 0.00 0.00 0.00 90 1010.6
20260906040438 80 37 4.0 6.0 0.00 0.00 0.00 90 1010.5
20260906040340 80 38 4.0 6.0 0.00 0.00 0.00 90 1010.6
20260906040238 80 35 4.0 6.0 0.00 0.00 0.00 90 1010.5
20260906040138 80 35 3.0 5.0 0.00 0.00 0.00 90 1010.5
20260906040038 80 41 3.0 5.0 0.00 0.00 0.00 90 1010.5
20260906035939 80 39 2.0 5.0 0.00 0.00 0.00 90 1010.5
20260906035836 80 35 2.0 5.0 0.00 0.00 0.00 90 1010.5
20260906035735 80 35 3.0 5.0 0.00 0.00 0.00 90 1010.5
20260906035634 80 39 4.0 5.0 0.00 0.00 0.00 90 1010.6
20260906035532 80 37 3.0 4.0 0.00 0.00 0.00 90 1010.5
20260906035432 80 39 1.0 4.0 0.00 0.00 0.00 90 1010.6
20260906035331 80 27 0.0 0.0 0.00 0.00 0.00 90 1010.6
20260906035234 80 27 0.0 0.0 0.00 0.00 0.00 90 1010.7
20260906035132 80 27 0.0 0.0 0.00 0.00 0.00 90 1010.7
20260906035031 80 27 0.0 0.0 0.00 0.00 0.00 90 1010.6
20260906034931 80 27 0.0 0.0 0.00 0.00 0.00 90 1010.7
20260906034832 80 27 0.0 0.0 0.00 0.00 0.00 90 1010.6
20260906034731 80 27 0.0 0.0 0.00 0.00 0.00 90 1010.5
20260906034632 80 27 0.0 0.0 0.00 0.00 0.00 90 1010.6
20260906034532 80 27 0.0 0.0 0.00 0.00 0.00 90 1010.6
20260906034432 80 27 0.0 0.0 0.00 0.00 0.00 90 1010.6
20260906034332 80 27 0.0 0.0 0.00 0.00 0.00 90 1010.6
20260906034231 80 27 0.0 0.0 0.00 0.00 0.00 90 1010.6
20260906034132 80 27 0.0 0.0 0.00 0.00 0.00 90 1010.6
20260906034029 80 27 0.0 0.0 0.00 0.00 0.00 90 1010.6
20260906033930 80 27 0.0 0.0 0.00 0.00 0.00 90 1010.6
20260906033825 80 27 0.0 0.0 0.00 0.00 0.00 90 1010.6
20260906033724 80 27 0.0 0.0 0.00 0.00 0.00 90 1010.7
20260906033623 80 28 0.0 0.0 0.00 0.00 0.00 90 1010.7
20260906033523 80 27 0.0 0.0 0.00 0.00 0.00 90 1010.6
20260906033420 80 28 0.0 0.0 0.00 0.00 0.00 90 1010.7
20260906033320 80 28 0.0 0.0 0.00 0.00 0.00 90 1010.7
20260906033219 80 28 0.0 0.0 0.00 0.00 0.00 90 1010.7
20260906033117 80 28 0.0 0.0 0.00 0.00 0.00 90 1010.6
20260906033007 80 28 0.0 0.0 0.00 0.00 0.00 90 1010.6
20260906032905 80 28 0.0 0.0 0.00 0.00 0.00 90 1010.7
20260906032802 80 28 0.0 0.0 0.00 0.00 0.00 89 1010.7
20260906032704 80 28 0.0 0.0 0.00 0.00 0.00 89 1010.7
20260906032603 80 28 0.0 1.0 0.00 0.00 0.00 89 1010.7
20260906032502 80 28 0.0 2.0 0.00 0.00 0.00 89 1010.7
20260906032404 80 27 0.0 4.0 0.00 0.00 0.00 89 1010.7
20260906032305 80 28 0.0 6.0 0.00 0.00 0.00 89 1010.7
20260906032203 80 28 0.0 6.0 0.00 0.00 0.00 90 1010.7
20260906032102 80 27 0.0 6.0 0.00 0.00 0.00 90 1010.7
20260906032003 80 27 0.0 6.0 0.00 0.00 0.00 90 1010.6
20260906031902 80 27 0.0 6.0 0.00 0.00 0.00 90 1010.7
20260906031802 80 30 0.0 6.0 0.00 0.00 0.00 90 1010.6
20260906031702 80 30 1.0 6.0 0.00 0.00 0.00 90 1010.7
20260906031602 80 30 3.0 6.0 0.00 0.00 0.00 90 1010.7
20260906031504 80 30 4.0 6.0 0.00 0.00 0.00 90 1010.6
20260906031403 80 27 4.0 6.0 0.00 0.00 0.00 90 1010.6
20260906031301 80 27 4.0 6.0 0.00 0.00 0.00 90 1010.6
20260906031203 80 31 3.0 4.0 0.00 0.00 0.00 90 1010.6
20260906031102 80 24 2.0 4.0 0.00 0.00 0.00 90 1010.6
20260906031004 80 18 2.0 4.0 0.00 0.00 0.00 90 1010.6
20260906030902 80 18 2.0 4.0 0.00 0.00 0.00 90 1010.5
20260906030803 80 18 2.0 4.0 0.00 0.00 0.00 90 1010.5
20260906030701 80 14 2.0 4.0 0.00 0.00 0.00 90 1010.5
20260906030600 80 14 2.0 4.0 0.00 0.00 0.00 90 1010.5
20260906030459 80 14 2.0 4.0 0.00 0.00 0.00 90 1010.5
20260906030356 80 14 3.0 4.0 0.00 0.00 0.00 91 1010.5
20260906030254 80 14 2.0 4.0 0.00 0.00 0.00 91 1010.6
20260906030154 80 11 2.0 4.0 0.00 0.00 0.00 91 1010.6
20260906030052 80 11 2.0 4.0 0.00 0.00 0.00 90 1010.6
20260906025951 80 11 2.0 4.0 0.00 0.00 0.00 90 1010.6
20260906025849 80 11 2.0 4.0 0.00 0.00 0.00 90 1010.6
20260906025746 80 11 3.0 4.0 0.00 0.00 0.00 90 1010.6
20260906025647 80 11 3.0 4.0 0.00 0.00 0.00 90 1010.6
20260906025543 80 11 3.0 4.0 0.00 0.00 0.00 90 1010.6
20260906025444 80 10 3.0 4.0 0.00 0.00 0.00 90 1010.6
20260906025341 80 10 3.0 4.0 0.00 0.00 0.00 90 1010.5
20260906025238 80 10 3.0 4.0 0.00 0.00 0.00 90 1010.6
20260906025137 80 10 2.0 4.0 0.00 0.00 0.00 90 1010.5
20260906025037 80 10 2.0 4.0 0.00 0.00 0.00 90 1010.5
20260906024937 80 10 3.0 4.0 0.00 0.00 0.00 90 1010.5
20260906024839 80 10 3.0 4.0 0.00 0.00 0.00 90 1010.4
20260906024737 80 10 3.0 4.0 0.00 0.00 0.00 90 1010.4
20260906024637 80 10 3.0 4.0 0.00 0.00 0.00 90 1010.3
20260906024537 80 10 2.0 4.0 0.00 0.00 0.00 90 1010.3
20260906024436 80 10 2.0 4.0 0.00 0.00 0.00 90 1010.3
20260906024338 80 10 2.0 4.0 0.00 0.00 0.00 90 1010.2
20260906024239 80 10 3.0 4.0 0.00 0.00 0.00 90 1010.3
20260906024137 80 10 3.0 4.0 0.00 0.00 0.00 90 1010.3
20260906024038 80 10 3.0 3.0 0.00 0.00 0.00 89 1010.2
20260906023937 80 10 2.0 3.0 0.00 0.00 0.00 89 1010.3
20260906023837 80 16 2.0 3.0 0.00 0.00 0.00 89 1010.2
20260906023738 80 16 2.0 4.0 0.00 0.00 0.00 89 1010.2
20260906023638 80 16 2.0 4.0 0.00 0.00 0.00 89 1010.3
20260906023536 80 16 2.0 4.0 0.00 0.00 0.00 89 1010.2
20260906023436 80 16 2.0 4.0 0.00 0.00 0.00 89 1010.2
20260906023337 80 16 2.0 4.0 0.00 0.00 0.00 89 1010.2
20260906023236 80 17 2.0 4.0 0.00 0.00 0.00 89 1010.1
20260906023137 80 16 2.0 4.0 0.00 0.00 0.00 89 1010.1
20260906023037 80 16 2.0 4.0 0.00 0.00 0.00 89 1010.1
20260906022937 80 16 2.0 4.0 0.00 0.00 0.00 89 1010.1
20260906022836 80 16 2.0 4.0 0.00 0.00 0.00 89 1010.0
20260906022736 80 17 2.0 4.0 0.00 0.00 0.00 89 1010.1
20260906022638 80 16 2.0 4.0 0.00 0.00 0.00 89 1010.1
20260906022536 80 17 2.0 4.0 0.00 0.00 0.00 89 1010.0
20260906022436 80 17 2.0 4.0 0.00 0.00 0.00 88 1010.0
20260906022338 80 17 1.0 4.0 0.00 0.00 0.00 88 1010.0
20260906022236 80 17 2.0 4.0 0.00 0.00 0.00 88 1009.9
20260906022136 80 17 2.0 4.0 0.00 0.00 0.00 88 1009.9
20260906022037 80 17 2.0 4.0 0.00 0.00 0.00 88 1009.9
20260906021938 80 17 3.0 4.0 0.00 0.00 0.00 88 1009.9
20260906021837 80 17 2.0 4.0 0.00 0.00 0.00 88 1009.8
20260906021736 80 17 2.0 4.0 0.00 0.00 0.00 88 1009.9
20260906021637 81 28 2.0 4.0 0.00 0.00 0.00 88 1009.8
20260906021536 81 28 2.0 4.0 0.00 0.00 0.00 88 1009.8
20260906021436 81 28 2.0 4.0 0.00 0.00 0.00 88 1009.8
20260906021338 81 30 2.0 4.0 0.00 0.00 0.00 88 1009.8
20260906021238 81 28 3.0 4.0 0.00 0.00 0.00 88 1009.8
20260906021135 80 28 2.0 6.0 0.00 0.00 0.00 88 1009.9
20260906021035 80 25 2.0 6.0 0.00 0.00 0.00 88 1009.9
20260906020936 80 25 2.0 6.0 0.00 0.00 0.00 88 1009.9
20260906020836 80 25 2.0 6.0 0.00 0.00 0.00 88 1009.8
20260906020734 80 27 2.0 6.0 0.00 0.00 0.00 88 1009.8
20260906020632 80 25 2.0 6.0 0.00 0.00 0.00 88 1009.8
20260906020532 80 24 3.0 6.0 0.00 0.00 0.00 89 1009.9
20260906020431 80 25 3.0 6.0 0.00 0.00 0.00 89 1009.9
20260906020332 80 25 3.0 6.0 0.00 0.00 0.00 88 1009.9
20260906020233 80 25 4.0 6.0 0.00 0.00 0.00 89 1010.0
20260906020131 80 25 4.0 6.0 0.00 0.00 0.00 89 1010.0
20260906020031 80 28 5.0 6.0 0.00 0.00 0.00 88 1010.0
20260906015933 80 25 5.0 6.0 0.00 0.00 0.00 88 1010.0
20260906015832 80 24 4.0 6.0 0.00 0.00 0.00 88 1010.0
20260906015731 80 30 3.0 6.0 0.00 0.00 0.00 88 1010.0
20260906015631 80 31 2.0 5.0 0.00 0.01 0.00 88 1009.9
20260906015532 80 18 3.0 5.0 0.00 0.01 0.00 88 1009.9
20260906015434 80 17 3.0 5.0 0.00 0.01 0.00 88 1009.9
20260906015332 81 17 3.0 5.0 0.00 0.01 0.00 88 1009.9
20260906015232 81 17 3.0 5.0 0.00 0.01 0.00 88 1009.9
20260906015131 81 27 2.0 5.0 0.00 0.01 0.00 88 1009.9
20260906015033 81 30 3.0 6.0 0.00 0.01 0.00 88 1009.9
20260906014934 81 30 4.0 6.0 0.00 0.01 0.00 88 1010.0
20260906014831 81 25 3.0 7.0 0.00 0.01 0.00 88 1009.9
20260906014730 81 24 4.0 7.0 0.00 0.01 0.00 88 1009.9
20260906014630 81 23 4.0 7.0 0.00 0.01 0.00 88 1010.0
20260906014533 81 28 4.0 7.0 0.00 0.01 0.00 88 1009.9
20260906014431 81 27 5.0 7.0 0.00 0.01 0.00 88 1010.0
20260906014330 81 20 4.0 7.0 0.00 0.01 0.00 88 1010.0
20260906014231 81 28 4.0 7.0 0.00 0.01 0.00 88 1010.0
20260906014112 81 25 5.0 7.0 0.00 0.01 0.00 88 1009.9
20260906014011 81 27 5.0 9.0 0.00 0.01 0.00 88 1009.9
20260906013910 80 21 4.0 9.0 0.00 0.01 0.00 88 1009.9
20260906013808 81 25 5.0 9.0 0.00 0.01 0.00 88 1009.9
20260906013707 81 31 5.0 9.0 0.00 0.01 0.00 88 1009.8
20260906013605 80 31 4.0 9.0 0.00 0.01 0.00 89 1009.8
20260906013505 80 24 3.0 9.0 0.00 0.01 0.00 89 1009.8
20260906013403 80 25 4.0 9.0 0.00 0.01 0.00 89 1009.7
20260906013304 80 34 5.0 9.0 0.00 0.01 0.00 89 1009.7
20260906013202 80 24 5.0 9.0 0.00 0.01 0.00 89 1009.7
20260906013102 80 23 5.0 9.0 0.00 0.01 0.00 89 1009.7
20260906013003 80 25 4.0 7.0 0.00 0.01 0.00 89 1009.6
20260906012904 80 24 5.0 7.0 0.00 0.01 0.00 89 1009.7
20260906012804 80 32 5.0 9.0 0.00 0.01 0.00 89 1009.7
20260906012703 80 28 5.0 9.0 0.00 0.01 0.00 89 1009.6
20260906012603 80 23 5.0 9.0 0.00 0.01 0.00 89 1009.7
20260906012503 80 28 5.0 9.0 0.00 0.01 0.00 89 1009.6
20260906012402 80 30 6.0 10.0 0.00 0.01 0.00 89 1009.6
20260906012306 80 25 6.0 10.0 0.00 0.01 0.00 89 1009.6
20260906012203 80 23 6.0 10.0 0.00 0.01 0.00 89 1009.7
20260906012102 80 28 6.0 10.0 0.00 0.01 0.00 89 1009.7
20260906012002 80 27 7.0 10.0 0.00 0.01 0.00 89 1009.7
20260906011904 80 27 6.0 10.0 0.00 0.01 0.00 89 1009.6
20260906011803 80 25 4.0 10.0 0.00 0.01 0.00 89 1009.6
20260906011703 80 18 3.0 10.0 0.00 0.01 0.00 89 1009.6
20260906011603 80 28 5.0 10.0 0.00 0.01 0.00 89 1009.6
20260906011504 80 25 7.0 10.0 0.00 0.01 0.00 89 1009.6
20260906011403 80 30 5.0 10.0 0.00 0.01 0.00 89 1009.5
20260906011302 80 30 4.0 10.0 0.00 0.01 0.00 89 1009.5
20260906011204 80 18 4.0 10.0 0.00 0.01 0.00 89 1009.5
20260906011102 80 27 5.0 10.0 0.00 0.01 0.00 89 1009.5
20260906011003 80 30 4.0 10.0 0.00 0.01 0.00 89 1009.5
20260906010903 80 24 4.0 10.0 0.00 0.01 0.00 89 1009.5
20260906010803 80 30 6.0 10.0 0.00 0.01 0.00 89 1009.5
20260906010701 80 25 5.0 10.0 0.00 0.01 0.00 89 1009.5
20260906010602 80 24 5.0 10.0 0.00 0.01 0.00 89 1009.5
20260906010505 80 32 6.0 10.0 0.00 0.01 0.00 89 1009.6
20260906010404 80 17 5.0 10.0 0.00 0.01 0.00 89 1009.6
20260906010302 80 32 5.0 10.0 0.00 0.01 0.00 89 1009.5
20260906010204 80 24 5.0 10.0 0.00 0.01 0.00 89 1009.5
20260906010103 80 30 5.0 10.0 0.00 0.01 0.00 90 1009.6
20260906010004 80 28 6.0 10.0 0.00 0.01 0.00 89 1009.6
20260906005902 80 31 6.0 10.0 0.00 0.01 0.00 89 1009.6
20260906005804 80 23 5.0 7.0 0.00 0.01 0.00 90 1009.6
20260906005702 80 28 5.0 7.0 0.00 0.01 0.00 90 1009.6
20260906005602 80 30 5.0 7.0 0.00 0.01 0.00 90 1009.5
20260906005505 80 28 5.0 9.0 0.00 0.01 0.00 89 1009.5
20260906005402 80 16 4.0 9.0 0.00 0.01 0.00 89 1009.6
20260906005306 80 18 6.0 9.0 0.00 0.01 0.00 89 1009.6
20260906005203 80 20 5.0 9.0 0.00 0.01 0.00 89 1009.6
20260906005103 81 21 3.0 9.0 0.00 0.01 0.00 89 1009.6
20260906005003 81 23 3.0 9.0 0.00 0.01 0.00 89 1009.6
20260906004903 81 21 5.0 9.0 0.00 0.01 0.00 89 1009.6
20260906004804 81 14 5.0 9.0 0.00 0.01 0.00 89 1009.5
20260906004702 81 23 6.0 9.0 0.00 0.01 0.00 89 1009.6
20260906004602 81 24 5.0 9.0 0.00 0.01 0.00 89 1009.6
20260906004504 81 18 4.0 6.0 0.00 0.01 0.00 89 1009.7
20260906004403 81 17 5.0 6.0 0.00 0.01 0.00 89 1009.6
20260906004302 81 16 5.0 6.0 0.00 0.01 0.00 89 1009.6
20260906004204 81 24 5.0 6.0 0.00 0.01 0.00 89 1009.7
20260906004103 81 14 4.0 6.0 0.00 0.01 0.00 89 1009.7
20260906004002 81 21 4.0 6.0 0.00 0.01 0.00 89 1009.7
20260906003901 81 16 4.0 9.0 0.00 0.01 0.00 88 1009.7
20260906003804 81 17 3.0 9.0 0.00 0.01 0.00 88 1009.7
20260906003702 81 20 4.0 10.0 0.00 0.01 0.00 88 1009.7
20260906003603 81 17 4.0 10.0 0.00 0.01 0.00 88 1009.6
20260906003503 81 17 4.0 11.0 0.00 0.01 0.00 88 1009.6
20260906003403 81 17 4.0 11.0 0.00 0.01 0.00 88 1009.7
20260906003304 81 17 4.0 11.0 0.00 0.01 0.00 88 1009.7
20260906003202 81 7 4.0 11.0 0.00 0.01 0.00 88 1009.7
20260906003102 81 17 6.0 11.0 0.00 0.01 0.00 88 1009.6
20260906003002 81 13 7.0 11.0 0.00 0.01 0.00 88 1009.7
20260906002902 81 28 7.0 11.0 0.00 0.01 0.00 88 1009.7
20260906002804 81 25 6.0 11.0 0.00 0.01 0.00 88 1009.6
20260906002704 81 20 7.0 11.0 0.00 0.01 0.00 88 1009.6
20260906002602 81 18 6.0 11.0 0.00 0.01 0.00 88 1009.7
20260906002502 81 27 5.0 9.0 0.00 0.01 0.00 88 1009.6
20260906002402 81 31 5.0 11.0 0.00 0.01 0.00 88 1009.6
20260906002306 81 28 5.0 12.0 0.00 0.01 0.00 88 1009.6
20260906002203 81 21 6.0 12.0 0.00 0.01 0.00 88 1009.6
20260906002103 81 23 6.0 12.0 0.00 0.01 0.00 87 1009.6
20260906002003 81 21 6.0 12.0 0.00 0.01 0.00 87 1009.7
20260906001903 81 30 6.0 12.0 0.00 0.01 0.00 87 1009.7
20260906001803 81 18 5.0 12.0 0.00 0.01 0.00 87 1009.6
20260906001702 82 18 5.0 13.0 0.00 0.01 0.00 87 1009.6
20260906001603 82 27 6.0 13.0 0.00 0.01 0.00 87 1009.7
20260906001503 82 34 8.0 13.0 0.00 0.01 0.00 87 1009.7
20260906001403 82 27 7.0 13.0 0.00 0.01 0.00 87 1009.7
20260906001302 82 32 6.0 13.0 0.00 0.01 0.00 86 1009.7
20260906001201 82 27 5.0 13.0 0.00 0.01 0.00 86 1009.8
20260906001104 82 21 6.0 13.0 0.00 0.01 0.00 86 1009.8
20260906001002 82 30 8.0 13.0 0.00 0.01 0.00 86 1009.8
20260906000903 82 32 7.0 14.0 0.00 0.01 0.00 86 1009.8
20260906000803 82 27 8.0 16.0 0.00 0.01 0.00 86 1009.8
20260906000704 82 24 8.0 16.0 0.00 0.01 0.00 85 1009.9
20260906000603 82 28 9.0 16.0 0.00 0.01 0.00 85 1009.9
20260906000503 83 21 9.0 16.0 0.00 0.01 0.00 85 1010.0
20260906000403 83 30 9.0 16.0 0.00 0.01 0.00 85 1009.9
20260906000303 83 86 8.0 16.0 0.00 0.01 0.00 85 1010.0
20260906000204 83 100 8.0 16.0 0.00 0.01 0.00 85 1009.9
20260906000104 83 82 10.0 16.0 0.00 0.01 0.00 85 1009.8
20260906000004 83 80 10.0 16.0 0.00 0.01 0.00 85 1009.9
20260905235902 83 76 9.0 16.0 0.00 0.01 0.00 85 1009.8
20260905235802 83 62 7.0 14.0 0.00 0.01 0.00 85 1009.8
20260905235703 83 62 7.0 14.0 0.00 0.01 0.00 84 1009.8
20260905235603 83 59 8.0 14.0 0.00 0.01 0.00 84 1009.9
20260905235503 83 76 9.0 14.0 0.00 0.01 0.00 84 1009.9
20260905235402 83 59 9.0 14.0 0.00 0.01 0.00 84 1009.9
20260905235306 83 94 10.0 14.0 0.00 0.01 0.00 84 1009.9
20260905235202 84 76 9.0 13.0 0.00 0.01 0.00 84 1010.0
20260905235102 84 85 9.0 13.0 0.00 0.01 0.00 84 1009.9
20260905235003 84 96 10.0 13.0 0.00 0.01 0.00 84 1009.9
20260905234903 84 92 9.0 13.0 0.00 0.01 0.00 84 1009.9
20260905234803 84 78 7.0 13.0 0.00 0.01 0.00 84 1009.8
20260905234703 84 86 6.0 14.0 0.00 0.01 0.00 84 1009.9
20260905234602 84 107 7.0 14.0 0.00 0.01 0.00 84 1009.9
20260905234502 84 116 7.0 14.0 0.00 0.01 0.00 83 1009.9
20260905234402 84 76 7.0 14.0 0.00 0.01 0.00 83 1009.8
20260905234303 84 71 9.0 14.0 0.00 0.01 0.00 83 1009.9
20260905234204 84 92 9.0 14.0 0.00 0.01 0.00 83 1010.0
20260905234103 84 90 7.0 14.0 0.00 0.01 0.00 83 1010.0
20260905234004 84 85 8.0 15.0 0.00 0.01 0.00 83 1010.0
20260905233903 85 89 9.0 15.0 0.00 0.01 0.00 82 1010.0
20260905233803 85 92 8.0 15.0 0.00 0.01 0.00 82 1010.2
20260905233704 85 102 8.0 15.0 0.00 0.01 0.00 82 1010.2
20260905233603 85 65 9.0 15.0 0.00 0.01 0.00 82 1010.2
20260905233503 85 62 9.0 15.0 0.00 0.01 0.00 82 1010.2
20260905233403 85 102 8.0 15.0 0.00 0.01 0.00 81 1010.3
20260905233304 85 56 9.0 15.0 0.00 0.01 0.00 81 1010.3
20260905233203 85 44 10.0 15.0 0.00 0.01 0.00 80 1010.4
20260905233102 86 66 11.0 15.0 0.00 0.01 0.00 80 1010.4
20260905233004 86 83 11.0 15.0 0.00 0.01 0.00 80 1010.3
20260905232903 86 54 10.0 15.0 0.00 0.01 0.00 80 1010.3
20260905232802 86 125 11.0 15.0 0.00 0.01 0.00 79 1010.3
20260905232702 86 39 11.0 15.0 0.00 0.01 0.00 78 1010.3
20260905232603 86 13 10.0 15.0 0.00 0.01 0.00 78 1010.3
20260905232503 86 16 11.0 15.0 0.00 0.01 0.00 77 1010.2
20260905232403 86 28 10.0 15.0 0.00 0.01 0.00 77 1010.2
20260905232306 86 21 9.0 15.0 0.00 0.01 0.00 77 1010.2
20260905232202 87 18 9.0 15.0 0.00 0.01 0.00 76 1010.2
20260905232101 87 6 8.0 14.0 0.00 0.01 0.00 75 1010.1
20260905232002 87 16 8.0 14.0 0.00 0.01 0.00 75 1010.2
20260905231903 87 6 9.0 14.0 0.00 0.01 0.00 75 1010.1
20260905231802 87 0 8.0 11.0 0.00 0.01 0.00 75 1010.1
20260905231702 87 20 7.0 11.0 0.00 0.01 0.00 75 1010.1
20260905231603 87 16 6.0 11.0 0.00 0.01 0.00 74 1010.1
20260905231502 88 16 6.0 11.0 0.00 0.01 0.00 74 1010.0
20260905231401 88 0 5.0 11.0 0.00 0.01 0.00 73 1010.0
20260905231303 88 37 4.0 11.0 0.00 0.01 0.00 73 1010.0
20260905231202 88 17 5.0 11.0 0.00 0.01 0.00 73 1009.9
20260905231103 88 44 6.0 11.0 0.00 0.01 0.00 72 1009.9
20260905231001 88 27 6.0 11.0 0.00 0.01 0.00 72 1009.8
20260905230903 89 51 6.0 11.0 0.00 0.01 0.00 71 1009.8
20260905230803 89 30 5.0 9.0 0.00 0.01 0.00 71 1009.8
20260905230702 89 87 4.0 9.0 0.00 0.01 0.00 71 1009.8
20260905230603 89 82 4.0 9.0 0.00 0.01 0.00 71 1009.8
20260905230503 89 58 4.0 9.0 0.00 0.01 0.00 71 1009.7
20260905230403 89 62 5.0 10.0 0.00 0.01 0.00 70 1009.7
20260905230302 89 45 5.0 10.0 0.00 0.01 0.00 70 1009.7
20260905230204 89 92 6.0 10.0 0.00 0.01 0.00 70 1009.8
20260905230002 89 61 5.0 10.0 0.00 0.01 0.00 70 1009.7
20260905225903 89 78 5.0 10.0 0.00 0.01 0.00 69 1009.7
20260905225803 89 90 5.0 10.0 0.00 0.01 0.00 69 1009.7
20260905225702 89 56 6.0 10.0 0.00 0.01 0.00 69 1009.6
20260905225602 89 71 6.0 10.0 0.00 0.01 0.00 69 1009.7
20260905225504 89 79 7.0 11.0 0.00 0.01 0.00 69 1009.7
20260905225401 89 82 6.0 11.0 0.00 0.01 0.00 69 1009.6
20260905225305 89 99 5.0 11.0 0.00 0.01 0.00 69 1009.6
20260905225203 89 124 5.0 11.0 0.00 0.01 0.00 69 1009.6
20260905225102 89 93 5.0 11.0 0.00 0.01 0.00 69 1009.6
20260905225002 89 87 5.0 11.0 0.00 0.01 0.00 69 1009.6
20260905224903 89 82 6.0 11.0 0.00 0.01 0.00 70 1009.6
20260905224803 89 92 6.0 11.0 0.00 0.01 0.00 70 1009.5
20260905224702 89 89 7.0 11.0 0.00 0.01 0.00 70 1009.5
20260905224602 89 97 6.0 11.0 0.00 0.01 0.00 71 1009.5
20260905224503 89 76 5.0 7.0 0.00 0.01 0.00 71 1009.4
20260905224401 89 78 5.0 7.0 0.00 0.01 0.00 71 1009.4
20260905224259 89 104 6.0 9.0 0.00 0.01 0.00 71 1009.4
20260905224158 89 87 6.0 9.0 0.00 0.01 0.00 70 1009.4
20260905224057 89 80 6.0 9.0 0.00 0.01 0.00 70 1009.4
20260905223953 89 79 5.0 9.0 0.00 0.01 0.00 70 1009.3
20260905223854 89 82 5.0 9.0 0.00 0.01 0.00 70 1009.4
20260905223751 90 114 5.0 9.0 0.00 0.01 0.00 70 1009.5
20260905223650 90 90 6.0 11.0 0.00 0.01 0.00 70 1009.4
20260905223549 90 123 5.0 11.0 0.00 0.01 0.00 70 1009.4
20260905223448 90 78 6.0 11.0 0.00 0.01 0.00 70 1009.4
20260905223346 90 94 7.0 11.0 0.00 0.01 0.00 70 1009.6
20260905223246 90 80 6.0 11.0 0.00 0.01 0.00 70 1009.5
20260905223144 90 104 5.0 11.0 0.00 0.01 0.00 70 1009.6
20260905223041 90 87 5.0 11.0 0.00 0.01 0.00 70 1009.5
20260905222937 90 69 6.0 11.0 0.00 0.01 0.00 70 1009.5
20260905222835 90 83 7.0 11.0 0.00 0.01 0.00 70 1009.6
20260905222735 90 66 6.0 11.0 0.00 0.01 0.00 70 1009.6
20260905222632 90 80 6.0 11.0 0.00 0.01 0.00 70 1009.6
20260905222532 90 85 6.0 11.0 0.00 0.01 0.00 70 1009.7
20260905222431 90 92 7.0 11.0 0.00 0.01 0.00 70 1009.6
20260905222331 90 100 8.0 11.0 0.00 0.01 0.00 70 1009.6
20260905222231 90 99 7.0 11.0 0.00 0.01 0.00 70 1009.6
20260905222131 90 90 5.0 9.0 0.00 0.01 0.00 70 1009.6
20260905222031 90 69 4.0 7.0 0.00 0.01 0.00 71 1009.5
20260905221931 90 56 4.0 7.0 0.00 0.01 0.00 70 1009.5
20260905221831 90 52 4.0 7.0 0.00 0.01 0.00 70 1009.5
20260905221733 90 71 4.0 7.0 0.00 0.01 0.00 70 1009.5
20260905221633 90 109 4.0 7.0 0.00 0.01 0.00 70 1009.5
20260905221532 90 133 3.0 7.0 0.00 0.01 0.00 71 1009.5
20260905221432 89 96 4.0 7.0 0.00 0.01 0.00 71 1009.4
20260905221331 90 94 5.0 7.0 0.00 0.01 0.00 71 1009.4
20260905221231 89 94 5.0 7.0 0.00 0.01 0.00 72 1009.3
20260905221131 89 92 5.0 7.0 0.00 0.01 0.00 71 1009.3
20260905221032 89 66 4.0 7.0 0.00 0.01 0.00 72 1009.4
20260905220931 89 49 4.0 7.0 0.00 0.01 0.00 72 1009.4
20260905220831 89 90 5.0 7.0 0.00 0.01 0.00 73 1009.3
20260905220732 89 51 2.0 5.0 0.00 0.01 0.00 73 1009.3
20260905220632 88 49 0.0 4.0 0.00 0.01 0.00 74 1009.4
20260905220531 88 0 0.0 0.0 0.00 0.01 0.00 74 1009.3
20260905220431 88 347 0.0 0.0 0.00 0.01 0.00 75 1009.3
20260905220331 88 347 0.0 0.0 0.00 0.01 0.00 75 1009.4
20260905220232 87 347 0.0 0.0 0.00 0.01 0.00 75 1009.5
20260905220131 87 347 0.0 0.0 0.00 0.01 0.00 75 1009.4
20260905220032 87 347 0.0 0.0 0.00 0.01 0.00 76 1009.4
20260905215932 87 347 0.0 0.0 0.00 0.01 0.00 76 1009.5
20260905215831 87 347 0.0 0.0 0.00 0.01 0.00 76 1009.5
20260905215731 87 347 0.0 0.0 0.00 0.01 0.00 76 1009.4
20260905215631 87 347 0.0 2.0 0.00 0.01 0.00 76 1009.5
20260905215532 87 347 0.0 3.0 0.00 0.01 0.00 76 1009.5
20260905215432 87 345 0.0 3.0 0.00 0.01 0.00 76 1009.5
20260905215333 87 327 0.0 3.0 0.00 0.01 0.00 76 1009.5
20260905215232 87 327 0.0 3.0 0.00 0.01 0.00 77 1009.5
20260905215130 87 327 0.0 3.0 0.00 0.01 0.00 77 1009.5
20260905215032 87 327 0.0 4.0 0.00 0.01 0.00 77 1009.5
20260905214931 87 327 0.0 4.0 0.00 0.01 0.00 76 1009.4
20260905214832 87 327 1.0 4.0 0.00 0.01 0.00 76 1009.4
20260905214731 87 327 1.0 4.0 0.00 0.01 0.00 76 1009.3
20260905214632 87 327 2.0 4.0 0.00 0.01 0.00 77 1009.3
20260905214532 87 327 1.0 4.0 0.00 0.01 0.00 77 1009.3
20260905214431 87 327 2.0 5.0 0.00 0.01 0.00 77 1009.3
20260905214333 87 326 2.0 5.0 0.00 0.01 0.00 77 1009.3
20260905214231 87 326 2.0 5.0 0.00 0.01 0.00 77 1009.3
20260905214131 87 326 2.0 5.0 0.00 0.01 0.00 77 1009.3
20260905214031 87 326 2.0 5.0 0.00 0.01 0.00 77 1009.3
20260905213931 87 326 2.0 5.0 0.00 0.02 0.00 77 1009.3
20260905213830 87 326 2.0 5.0 0.00 0.02 0.00 77 1009.4
20260905213730 87 326 2.0 5.0 0.00 0.04 0.00 77 1009.4
20260905213632 87 326 3.0 5.0 0.00 0.05 0.00 77 1009.4
20260905213531 87 326 3.0 5.0 0.00 0.06 0.00 77 1009.5
20260905213432 87 303 3.0 5.0 0.00 0.06 0.00 76 1009.5
20260905213332 87 303 3.0 5.0 0.00 0.06 0.00 76 1009.5
20260905213232 87 303 2.0 5.0 0.00 0.06 0.00 75 1009.6
20260905213132 87 309 0.0 0.0 0.00 0.06 0.00 75 1009.6
20260905213031 87 316 0.0 0.0 0.00 0.06 0.00 74 1009.6
20260905212932 87 316 0.0 0.0 0.00 0.06 0.00 74 1009.6
20260905212831 87 309 0.0 0.0 0.00 0.06 0.00 74 1009.6
20260905212732 87 309 0.0 1.0 0.00 0.06 0.00 73 1009.6
20260905212632 87 314 0.0 1.0 0.00 0.06 0.00 73 1009.6
20260905212532 87 314 0.0 1.0 0.00 0.06 0.00 73 1009.7
20260905212432 87 314 0.0 1.0 0.00 0.06 0.00 73 1009.6
20260905212332 87 319 0.0 1.0 0.00 0.06 0.00 73 1009.7
20260905212232 87 319 0.0 1.0 0.00 0.06 0.00 73 1009.6
20260905212131 87 319 0.0 1.0 0.00 0.06 0.00 73 1009.7
20260905212031 87 320 0.0 1.0 0.00 0.06 0.00 73 1009.7
20260905211932 87 334 0.0 1.0 0.00 0.06 0.00 73 1009.6
20260905211831 87 334 0.0 1.0 0.00 0.06 0.00 73 1009.7
20260905211732 87 334 0.0 0.0 0.00 0.06 0.00 72 1009.7
20260905211631 87 334 0.0 0.0 0.00 0.06 0.00 72 1009.7
20260905211532 88 334 0.0 0.0 0.00 0.06 0.00 71 1009.7
20260905211431 88 334 0.0 0.0 0.00 0.06 0.00 72 1009.7
20260905211331 88 334 0.0 0.0 0.00 0.06 0.00 71 1009.7
20260905211232 88 334 0.0 0.0 0.00 0.06 0.00 71 1009.6
20260905211131 88 334 0.0 0.0 0.00 0.06 0.00 71 1009.6
20260905211030 87 334 0.0 0.0 0.00 0.06 0.00 71 1009.6
20260905210932 87 334 0.0 2.0 0.00 0.06 0.00 71 1009.6
20260905210831 87 334 0.0 2.0 0.00 0.06 0.00 71 1009.6
20260905210731 87 334 0.0 3.0 0.00 0.06 0.00 71 1009.7
20260905210631 87 334 0.0 3.0 0.00 0.06 0.00 71 1009.7
20260905210531 87 334 0.0 3.0 0.00 0.06 0.00 71 1009.7
20260905210431 87 334 0.0 3.0 0.00 0.06 0.00 71 1009.7
20260905210332 87 334 0.0 5.0 0.00 0.06 0.00 71 1009.8
20260905210234 87 334 0.0 6.0 0.00 0.06 0.00 72 1009.8
20260905210132 87 333 1.0 6.0 0.00 0.06 0.00 72 1009.8
20260905210029 86 333 1.0 9.0 0.00 0.06 0.00 72 1009.8
20260905205929 86 333 2.0 10.0 0.00 0.06 0.00 72 1009.8
20260905205829 86 333 2.0 10.0 0.00 0.06 0.00 73 1009.8
20260905205729 86 333 1.0 10.0 0.00 0.06 0.00 73 1009.9
20260905205629 86 333 2.0 10.0 0.00 0.06 0.00 73 1009.9
20260905205529 86 333 3.0 10.0 0.00 0.06 0.00 73 1009.8
20260905205428 85 331 4.0 10.0 0.00 0.06 0.00 73 1009.8
20260905205330 85 323 4.0 10.0 0.00 0.06 0.00 74 1010.0
20260905205228 85 305 5.0 10.0 0.00 0.06 0.00 74 1009.9
20260905205128 85 290 6.0 10.0 0.00 0.06 0.00 74 1010.0
20260905205028 85 299 5.0 10.0 0.00 0.06 0.00 75 1009.9
20260905204928 85 298 5.0 13.0 0.00 0.06 0.00 74 1010.0
20260905204829 85 288 6.0 14.0 0.00 0.06 0.00 74 1010.0
20260905204728 85 290 7.0 17.0 0.00 0.06 0.00 74 1009.9
20260905204630 85 298 7.0 18.0 0.00 0.06 0.00 74 1009.9
20260905204528 85 290 7.0 18.0 0.00 0.06 0.00 74 1009.8
20260905204430 85 292 6.0 18.0 0.00 0.06 0.00 74 1009.8
20260905204329 85 330 6.0 18.0 0.00 0.06 0.00 75 1009.9
20260905204228 85 305 6.0 18.0 0.00 0.06 0.00 75 1009.8
20260905204128 85 289 8.0 18.0 0.00 0.06 0.00 74 1009.8
20260905204028 85 271 11.0 18.0 0.00 0.06 0.00 74 1009.8
20260905203928 85 293 13.0 18.0 0.00 0.06 0.00 74 1009.8
20260905203830 85 300 13.0 18.0 0.00 0.06 0.00 74 1009.8
20260905203729 85 307 11.0 18.0 0.00 0.06 0.00 74 1009.8
20260905203629 86 307 10.0 16.0 0.00 0.06 0.00 73 1009.9
20260905203530 86 298 6.0 13.0 0.00 0.06 0.00 73 1009.9
20260905203428 87 306 4.0 9.0 0.00 0.06 0.00 73 1009.9
20260905203328 87 309 4.0 9.0 0.00 0.06 0.00 73 1009.9
20260905203229 87 300 5.0 10.0 0.00 0.06 0.00 73 1010.0
20260905203128 87 300 4.0 10.0 0.00 0.06 0.00 73 1009.9
20260905203028 87 324 2.0 10.0 0.00 0.06 0.00 74 1009.9
20260905202929 87 258 3.0 10.0 0.00 0.06 0.00 73 1010.0
20260905202828 88 257 4.0 10.0 0.00 0.06 0.00 73 1010.0
20260905202728 88 319 4.0 10.0 0.00 0.06 0.00 72 1010.0
20260905202630 89 309 4.0 10.0 0.00 0.06 0.00 72 1010.0
20260905202529 89 285 4.0 10.0 0.00 0.06 0.00 71 1010.1
20260905202427 90 290 6.0 10.0 0.00 0.06 0.00 70 1010.1
20260905202328 91 290 4.0 10.0 0.00 0.06 0.00 67 1010.1
20260905202229 91 276 3.0 10.0 0.00 0.06 0.00 67 1010.1
20260905202129 91 237 3.0 10.0 0.00 0.06 0.00 67 1010.0
20260905202028 91 162 3.0 10.0 0.00 0.06 0.00 67 1010.0
20260905201927 91 171 2.0 10.0 0.00 0.06 0.00 67 1010.0
20260905201829 91 169 3.0 10.0 0.00 0.06 0.00 67 1009.9
20260905201728 91 199 5.0 10.0 0.00 0.06 0.00 67 1010.0
20260905201628 91 111 6.0 10.0 0.00 0.06 0.00 67 1010.0
20260905201527 91 111 6.0 10.0 0.00 0.06 0.00 67 1009.9
20260905201427 91 66 6.0 10.0 0.00 0.06 0.00 67 1009.9
20260905201326 91 117 6.0 10.0 0.00 0.06 0.00 67 1010.0
20260905201225 91 107 6.0 10.0 0.00 0.06 0.00 67 1009.9
20260905201123 91 113 6.0 11.0 0.00 0.06 0.00 67 1009.9
20260905201022 91 109 5.0 11.0 0.00 0.06 0.00 68 1009.9
20260905200920 91 94 4.0 11.0 0.00 0.06 0.00 68 1009.9
20260905200818 91 102 4.0 11.0 0.00 0.06 0.00 68 1009.9
20260905200717 91 86 3.0 11.0 0.00 0.06 0.00 67 1009.9
20260905200614 91 165 4.0 11.0 0.00 0.06 0.00 67 1009.9
20260905200513 91 120 4.0 11.0 0.00 0.06 0.00 68 1009.9
20260905200412 91 179 5.0 11.0 0.00 0.06 0.00 68 1010.0
20260905200311 91 90 6.0 11.0 0.00 0.06 0.00 68 1010.0
20260905200209 91 99 6.0 11.0 0.00 0.06 0.00 67 1010.0
20260905200107 91 110 6.0 11.0 0.00 0.06 0.00 67 1010.0
20260905200006 91 121 6.0 11.0 0.00 0.06 0.00 67 1010.0
20260905195903 91 113 6.0 10.0 0.00 0.06 0.00 67 1010.0
20260905195804 92 85 6.0 10.0 0.00 0.06 0.00 67 1010.0
20260905195702 92 96 6.0 10.0 0.00 0.06 0.00 66 1010.0
20260905195602 92 92 8.0 10.0 0.00 0.06 0.00 66 1010.0
20260905195503 92 93 3.0 7.0 0.00 0.06 0.00 64 1010.0
20260905195404 92 93 3.0 7.0 0.00 0.06 0.00 64 1010.0
20260905195306 92 106 2.0 7.0 0.00 0.06 0.00 64 1010.0
20260905195203 92 86 3.0 7.0 0.00 0.06 0.00 64 1009.9
20260905195104 92 85 3.0 7.0 0.00 0.06 0.00 63 1009.9
20260905195002 92 86 5.0 7.0 0.00 0.06 0.00 63 1010.0
20260905194903 92 100 4.0 7.0 0.00 0.06 0.00 63 1009.9
20260905194804 92 63 2.0 7.0 0.00 0.06 0.00 63 1009.9
20260905194702 92 224 2.0 7.0 0.00 0.06 0.00 64 1010.0
20260905194603 92 224 2.0 7.0 0.00 0.06 0.00 63 1010.0
20260905194503 92 166 3.0 7.0 0.00 0.06 0.00 64 1010.0
20260905194402 92 168 3.0 11.0 0.00 0.06 0.00 64 1010.0
20260905194302 92 124 4.0 11.0 0.00 0.06 0.00 63 1010.0
20260905194202 92 121 5.0 11.0 0.00 0.06 0.00 64 1010.0
20260905194103 92 100 3.0 11.0 0.00 0.06 0.00 63 1010.0
20260905194003 93 117 3.0 11.0 0.00 0.06 0.00 64 1010.0
20260905193903 93 179 5.0 11.0 0.00 0.06 0.00 64 1010.0
20260905193802 93 188 4.0 11.0 0.00 0.06 0.00 64 1010.0
20260905193703 93 158 3.0 11.0 0.00 0.06 0.00 64 1010.0
20260905193602 93 127 5.0 11.0 0.00 0.06 0.00 64 1010.1
20260905193505 93 100 6.0 11.0 0.00 0.06 0.00 64 1010.1
20260905193403 93 131 6.0 11.0 0.00 0.06 0.00 64 1010.0
20260905193303 93 104 8.0 13.0 0.00 0.06 0.00 63 1010.1
20260905193202 93 99 6.0 13.0 0.00 0.06 0.00 63 1010.0
20260905193103 94 121 4.0 13.0 0.00 0.06 0.00 63 1010.0
20260905193004 94 178 4.0 13.0 0.00 0.06 0.00 63 1009.9
20260905192903 94 148 3.0 13.0 0.00 0.06 0.00 63 1010.0
20260905192803 94 94 3.0 13.0 0.00 0.06 0.00 64 1010.0
20260905192703 93 116 3.0 13.0 0.00 0.06 0.00 63 1010.0
20260905192602 93 78 2.0 13.0 0.00 0.06 0.00 64 1010.0
20260905192502 93 72 5.0 13.0 0.00 0.06 0.00 63 1010.1
20260905192404 93 72 8.0 13.0 0.00 0.06 0.00 64 1010.2
20260905192306 93 92 6.0 11.0 0.00 0.06 0.00 65 1010.1
20260905192202 93 92 4.0 9.0 0.00 0.06 0.00 65 1010.2
20260905192102 92 140 4.0 9.0 0.00 0.06 0.00 65 1010.2
20260905192005 93 92 4.0 6.0 0.00 0.06 0.00 65 1010.3
20260905191902 93 154 4.0 7.0 0.00 0.06 0.00 65 1010.3
20260905191803 93 196 4.0 13.0 0.00 0.06 0.00 64 1010.3
20260905191703 93 116 4.0 13.0 0.00 0.06 0.00 65 1010.3
20260905191602 93 118 3.0 13.0 0.00 0.06 0.00 64 1010.3
20260905191502 93 113 3.0 13.0 0.00 0.06 0.00 66 1010.3
20260905191403 93 94 3.0 13.0 0.00 0.06 0.00 66 1010.3
20260905191302 93 121 3.0 13.0 0.00 0.06 0.00 66 1010.3
20260905191203 93 87 3.0 13.0 0.00 0.06 0.00 65 1010.4
20260905191103 93 155 4.0 13.0 0.00 0.06 0.00 65 1010.3
20260905191005 93 202 6.0 13.0 0.00 0.06 0.00 64 1010.4
20260905190903 93 209 6.0 13.0 0.00 0.06 0.00 64 1010.3
20260905190802 93 220 6.0 13.0 0.00 0.06 0.00 65 1010.3
20260905190703 93 120 6.0 11.0 0.00 0.06 0.00 65 1010.3
20260905190602 94 103 6.0 11.0 0.00 0.06 0.00 63 1010.4
20260905190502 94 96 6.0 11.0 0.00 0.06 0.00 63 1010.4
20260905190403 95 94 4.0 12.0 0.00 0.06 0.00 63 1010.4
20260905190302 95 138 5.0 13.0 0.00 0.06 0.00 62 1010.4
20260905190202 96 173 5.0 13.0 0.00 0.06 0.00 63 1010.5
20260905190005 95 175 5.0 13.0 0.00 0.06 0.00 64 1010.4
20260905185903 94 282 3.0 13.0 0.00 0.06 0.00 63 1010.5
20260905185803 94 16 2.0 13.0 0.00 0.06 0.00 63 1010.5
20260905185702 94 72 4.0 13.0 0.00 0.06 0.00 63 1010.5
20260905185602 94 71 6.0 13.0 0.00 0.06 0.00 62 1010.5
20260905185503 94 82 8.0 13.0 0.00 0.06 0.00 61 1010.5
20260905185403 95 85 6.0 13.0 0.00 0.06 0.00 61 1010.5
20260905185305 95 72 4.0 10.0 0.00 0.06 0.00 59 1010.6
20260905185203 95 120 3.0 10.0 0.00 0.06 0.00 58 1010.6
20260905185103 95 127 4.0 10.0 0.00 0.06 0.00 58 1010.7
20260905185003 96 118 4.0 10.0 0.00 0.06 0.00 59 1010.5
20260905184903 96 107 3.0 10.0 0.00 0.06 0.00 58 1010.5
20260905184802 96 110 2.0 10.0 0.00 0.06 0.00 58 1010.6
20260905184702 96 234 4.0 10.0 0.00 0.06 0.00 58 1010.5
20260905184603 96 63 4.0 10.0 0.00 0.06 0.00 58 1010.6
20260905184502 96 80 4.0 6.0 0.00 0.06 0.00 58 1010.7
20260905184403 96 97 3.0 6.0 0.00 0.06 0.00 58 1010.6
20260905184303 96 117 4.0 6.0 0.00 0.06 0.00 56 1010.6
20260905184203 96 96 3.0 6.0 0.00 0.06 0.00 57 1010.7
20260905184102 96 82 4.0 6.0 0.00 0.06 0.00 56 1010.7
20260905184003 96 79 3.0 6.0 0.00 0.06 0.00 56 1010.6
20260905183902 96 78 2.0 5.0 0.00 0.06 0.00 55 1010.7
20260905183803 96 72 2.0 5.0 0.00 0.06 0.00 55 1010.7
20260905183703 96 89 3.0 6.0 0.00 0.06 0.00 55 1010.8
20260905183603 96 125 3.0 9.0 0.00 0.06 0.00 54 1010.7
20260905183504 96 65 3.0 9.0 0.00 0.06 0.00 53 1010.7